GFSGL_850_temp_003.txt.gz
Temp
8 8 7 7 7 6 6 5 5 4 4 4 4 4 3 3 3 3 3 3 3 2 2 2 2 1 0 0 1 1 1 2 2 4 4 5 6 7 10 11 12 13 12
8 8 7 7 6 6 6 5 5 4 4 4 4 3 3 3 3 3 3 3 3 3 3 2 2 1 0 0 0 1 3 3 3 4 4 4 6 7 9 10 12 12 12
8 8 7 7 7 6 5 5 4 4 4 4 3 3 3 3 3 3 3 3 3 3 3 2 2 1 0 0 0 2 3 4 4 4 4 5 5 7 9 11 11 11 11
9 8 7 7 6 6 5 5 4 4 4 3 3 3 3 3 3 2 2 3 3 2 2 2 2 2 0 1 2 3 4 5 6 6 5 5 6 7 9 10 10 11 11
9 8 7 7 6 5 5 5 4 4 3 3 3 3 2 2 2 2 2 2 2 2 2 2 2 2 0 1 3 4 5 5 6 5 5 6 6 7 8 10 10 11 10
8 7 7 6 6 5 5 4 4 4 3 3 3 2 2 2 2 2 2 2 2 2 2 2 2 2 1 2 3 4 5 6 6 6 6 6 7 7 8 9 9 9 9
8 7 7 6 5 5 4 4 4 4 3 3 2 2 2 2 2 2 2 2 2 2 2 2 2 2 1 2 3 4 6 7 7 8 7 7 7 8 9 8 9 10 9
8 7 6 6 5 5 4 4 4 3 3 2 2 1 1 1 1 2 2 2 2 2 2 2 2 2 2 3 3 4 6 6 7 7 8 7 8 8 8 10 10 11 9
8 7 6 6 5 4 4 4 3 2 2 2 2 1 1 1 1 1 1 1 1 1 2 2 1 2 2 3 3 4 5 7 7 8 8 7 8 8 8 8 9 8 8
7 6 6 5 4 4 4 3 3 2 2 2 1 1 1 1 1 1 0 0 0 1 1 1 2 1 2 3 3 4 6 7 7 8 7 7 8 8 8 9 10 8 8
7 6 5 4 4 4 3 3 2 2 2 2 1 1 1 1 0 0 -1 -0 0 0 0 1 1 2 2 3 4 5 7 8 8 8 8 8 8 8 8 9 9 9 8
6 5 4 4 4 3 3 2 2 2 2 2 1 1 1 0 -0 -0 -1 -1 -0 -1 -0 0 1 1 2 3 4 5 6 8 8 8 8 8 8 8 9 9 9 9 10
5 4 4 4 4 3 3 2 2 2 2 1 1 1 0 -0 -1 -1 -1 -1 -1 -1 -1 -0 1 1 2 3 4 5 6 8 9 8 8 8 9 9 9 9 9 9 9
5 4 4 4 3 3 2 2 2 2 1 1 1 1 -0 -0 -0 -1 -1 -1 -1 -1 -0 -0 1 1 1 2 3 5 6 8 9 9 9 9 10 10 9 10 9 9 9
5 4 3 3 3 2 2 2 2 1 1 1 0 0 -0 -0 -0 -1 -1 -0 -1 -0 -0 1 1 1 1 2 3 4 5 8 9 9 9 9 10 10 10 10 10 9 9
4 3 3 2 2 2 1 1 1 1 1 0 0 -0 0 -0 -0 -0 -0 -1 -1 0 0 0 0 0 0 1 2 2 4 7 9 9 9 10 10 10 10 10 10 9 9
3 3 2 2 2 1 1 1 1 0 0 -0 -0 -0 0 0 0 0 -0 -0 -1 -0 0 0 0 0 -0 0 1 2 4 7 8 9 9 10 10 10 10 10 9 9 8
3 2 2 2 1 0 0 0 -0 -0 -1 -1 -0 -1 -0 -0 0 0 -0 -1 -1 -0 0 -0 -0 0 -0 0 2 2 3 6 8 9 10 10 10 10 9 10 9 9 8
2 2 1 1 0 -0 -1 -1 -1 -1 -1 -2 -2 -1 -1 -1 -0 -0 -0 -1 -1 -1 -0 -0 0 0 -0 0 2 2 2 5 8 10 10 10 10 10 9 10 9 9 9
2 1 1 -0 -1 -1 -1 -1 -1 -1 -2 -2 -1 -1 -1 -1 -1 -1 -0 -1 -2 -1 -0 -0 0 0 -0 0 2 3 3 5 8 10 10 10 10 10 10 10 9 9 10
2 1 -0 -1 -1 -1 -1 -1 -2 -2 -1 -2 -2 -2 -1 -1 -1 -1 -1 -1 -2 -1 -0 -0 0 0 -0 0 2 2 3 4 6 9 10 10 10 10 10 10 9 10 10
0 -1 -1 -2 -2 -2 -1 -2 -2 -2 -2 -2 -2 -2 -2 -2 -1 -1 -1 -1 -1 -1 -0 -0 -0 0 -0 0 1 3 3 4 6 8 10 10 10 10 10 9 10 11 10
-1 -2 -2 -2 -2 -3 -3 -3 -3 -3 -3 -2 -2 -2 -2 -2 -1 -1 -1 -1 -1 -1 -0 -0 -0 0 0 -0 1 3 3 4 5 7 9 9 10 9 10 10 10 11 10
-2 -2 -3 -3 -3 -4 -3 -3 -3 -3 -3 -3 -2 -2 -2 -2 -2 -1 -2 -1 -1 -1 -0 -0 -0 0 0 0 1 2 3 4 5 7 8 9 10 10 9 10 10 12 11
-3 -3 -3 -4 -4 -4 -3 -3 -3 -3 -3 -3 -3 -2 -2 -2 -2 -2 -1 -1 -1 -1 -0 -0 -0 0 0 -0 1 3 3 4 5 7 9 9 8 9 9 10 10 10 11
-3 -4 -4 -4 -4 -3 -4 -4 -4 -4 -4 -3 -3 -3 -3 -2 -2 -1 -1 -1 -1 -0 -1 -0 -0 0 0 0 2 3 4 5 6 7 8 9 9 9 9 10 10 11 12

GFSGL_850_temp_006.txt.gz
Temp
11 10 9 8 8 7 7 7 6 5 5 5 4 4 4 4 3 3 3 2 2 2 3 3 2 2 2 2 2 0 0 -0 -0 1 2 3 3 4 7 6 9 11 11
11 10 9 8 7 7 7 7 6 5 5 4 4 4 4 3 3 3 2 2 2 2 2 2 2 2 2 2 2 1 -0 0 0 2 3 3 3 6 6 6 9 11 11
11 10 9 8 7 7 7 7 6 5 5 4 4 4 3 3 3 2 2 2 2 2 2 2 2 2 2 2 1 1 0 1 3 3 3 3 4 6 6 7 9 11 11
11 10 9 8 7 7 7 6 5 5 5 4 4 3 3 3 3 2 2 2 2 2 2 2 2 2 2 2 1 1 1 3 4 4 4 4 5 6 5 6 9 10 11
11 10 9 8 7 7 7 6 5 5 4 4 3 3 3 3 2 2 1 1 2 2 2 2 2 2 2 2 1 1 1 3 5 5 4 5 5 6 5 7 9 10 11
10 10 9 8 7 7 6 6 5 4 4 4 3 3 3 2 2 1 1 1 2 2 2 2 2 2 2 1 1 1 2 3 5 5 6 5 6 6 6 8 9 10 10
10 9 8 8 7 7 6 5 5 4 4 3 3 3 2 1 1 1 1 1 1 1 2 2 1 1 2 2 1 2 3 4 5 6 6 6 6 7 8 8 8 10 10
10 9 8 7 7 6 6 5 5 4 4 3 3 2 1 1 1 1 1 1 1 1 0 1 1 1 2 1 1 2 3 4 6 6 6 6 7 6 6 8 9 10 10
10 9 8 7 7 6 5 5 4 4 3 3 2 2 1 1 1 1 0 0 0 0 0 0 0 1 1 0 1 2 3 5 6 7 7 7 6 6 7 8 9 9 9
10 9 8 7 7 6 5 4 4 3 3 2 2 2 1 1 1 1 0 -1 -1 -0 0 -0 -0 0 0 1 1 2 3 4 5 7 7 7 7 7 8 8 9 9 9
9 8 7 7 6 5 4 4 4 3 2 2 2 1 1 1 1 0 -1 -1 -1 -1 -0 -1 -1 0 1 1 2 2 3 4 5 6 7 8 7 7 7 8 8 9 9
8 7 7 6 6 4 4 4 3 2 2 2 2 1 1 1 0 -0 -1 -1 -1 -1 -1 -1 -1 0 1 1 1 2 3 4 6 7 7 8 8 8 7 8 8 8 10
7 7 6 5 4 4 4 3 3 2 2 2 1 1 1 0 0 -0 -1 -1 -0 -0 -1 -1 -0 1 1 1 2 2 2 4 6 7 7 8 9 8 7 8 8 9 9
7 6 5 4 4 4 3 3 2 2 2 1 1 1 0 0 0 -0 -1 -0 0 -0 -1 -0 0 1 1 1 2 2 2 3 4 7 8 8 8 8 8 8 9 8 8
6 5 4 4 4 3 3 2 2 1 1 1 1 0 -0 -0 0 -0 -0 -0 -0 -0 -1 -0 0 1 1 1 1 2 1 3 4 7 8 8 8 8 9 9 9 8 8
5 5 4 4 3 3 2 2 1 1 1 0 -0 -0 -1 -0 -0 0 0 0 -0 -0 -1 -0 -0 0 -0 0 0 1 1 2 3 7 8 8 9 9 9 9 9 8 8
5 4 4 3 3 2 1 1 1 1 0 -0 -0 -0 -0 -1 -0 -0 0 -0 -0 -1 -1 -0 -0 -0 -0 0 -0 0 1 1 3 7 8 9 8 9 9 9 9 8 8
4 4 3 2 2 1 1 1 -0 -0 -1 -1 -1 -1 -1 -1 -1 -0 -0 -0 -0 -0 -1 -1 -0 -0 -0 -0 -0 -0 1 2 4 6 8 8 9 9 9 9 9 9 9
4 3 2 2 1 1 0 -0 -1 -1 -1 -1 -1 -1 -1 -1 -1 -1 -1 -1 -1 -1 -1 -1 -0 -0 -0 -0 -0 1 1 2 3 7 8 9 9 9 9 9 9 9 9
3 2 2 1 1 -0 -0 -1 -1 -1 -2 -1 -2 -2 -2 -2 -1 -2 -1 -1 -1 -1 -1 -1 -0 -0 -0 -0 -0 0 0 2 3 5 8 9 10 10 9 9 9 9 8
2 1 1 0 -0 -1 -1 -2 -1 -2 -2 -2 -2 -2 -2 -2 -2 -2 -1 -1 -1 -1 -1 -1 -1 -0 -0 -0 -0 -0 0 2 3 4 7 9 10 10 10 9 9 9 9
1 1 -0 -1 -1 -2 -2 -2 -2 -2 -3 -3 -2 -2 -2 -2 -2 -2 -1 -1 -1 -1 -1 -1 -1 -0 -1 -1 -1 -0 0 2 3 4 6 9 9 9 9 10 9 9 9
1 -1 -1 -2 -2 -2 -3 -3 -4 -3 -3 -3 -3 -2 -2 -2 -2 -2 -1 -1 -1 -2 -1 -1 -1 -0 -0 -0 -1 -0 1 2 3 4 6 9 10 9 9 9 9 9 9
-1 -2 -2 -2 -3 -3 -4 -4 -3 -3 -3 -3 -3 -3 -2 -2 -2 -2 -2 -2 -2 -1 -1 -1 -0 -0 -0 0 -1 0 2 2 3 5 6 8 9 9 9 9 9 9 9
-2 -2 -3 -4 -4 -4 -4 -4 -4 -3 -3 -3 -3 -3 -3 -2 -2 -2 -2 -2 -2 -2 -1 -1 -1 -0 -0 0 -0 1 2 3 4 6 7 8 9 8 9 10 9 9 10
-3 -3 -3 -4 -4 -4 -4 -4 -4 -4 -4 -4 -4 -4 -3 -3 -3 -2 -2 -2 -2 -2 -1 -1 -1 -0 -0 0 -0 1 2 3 5 6 7 8 8 8 9 10 9 9 10

GFSGL_850_temp_009.txt.gz
Temp
14 13 11 10 10 9 9 8 8 7 6 6 5 5 4 4 4 3 3 3 2 2 2 2 2 2 2 2 2 2 2 1 0 1 0 2 2 1 2 3 3 5 8
14 13 11 10 9 9 8 8 7 6 6 6 5 5 4 4 3 3 3 3 2 2 2 2 2 2 2 2 2 2 2 1 1 0 1 2 2 2 3 3 3 6 7
14 12 11 10 9 8 8 7 6 6 6 5 5 5 4 4 3 3 3 2 2 2 1 1 1 2 2 2 2 2 2 1 1 1 1 2 3 3 4 4 4 7 6
13 12 11 10 9 9 8 7 6 6 6 5 5 4 4 3 3 3 2 2 1 1 1 1 2 2 2 2 1 1 1 1 1 1 1 3 3 4 3 4 5 8 8
13 12 11 11 9 8 8 7 6 6 5 5 4 4 4 3 3 2 2 1 1 1 1 2 1 1 1 1 1 1 1 1 1 2 3 4 4 4 4 5 8 6 9
13 12 11 10 9 8 7 7 6 6 5 5 4 4 3 3 2 2 1 1 1 1 1 1 1 1 1 1 1 1 1 1 2 2 4 5 5 5 4 6 8 7 10
13 12 11 10 9 8 7 7 6 6 5 5 4 3 3 3 2 1 1 1 1 1 1 1 1 0 0 0 1 1 1 2 3 3 5 5 5 6 6 6 6 9 10
13 12 11 10 9 8 7 6 6 5 5 4 4 3 3 2 2 1 1 0 0 0 0 0 0 -0 -0 -1 0 1 2 2 3 4 5 6 6 6 7 9 7 7 11
13 12 11 10 9 8 7 6 6 5 4 4 4 3 2 2 1 1 0 0 -0 -0 -1 -0 -0 -1 -1 -0 0 1 2 2 3 5 5 6 6 7 7 7 8 9 10
13 12 11 10 9 8 7 6 5 5 4 3 3 2 2 1 1 1 0 -0 -1 -1 -1 -1 -1 -1 -1 0 1 2 1 2 3 5 6 7 7 6 7 8 9 10 10
13 12 10 9 8 7 7 5 5 4 3 3 2 2 1 1 1 0 0 -1 -1 -1 -0 -0 -1 -1 -1 0 1 1 1 2 3 4 6 7 7 7 7 9 9 10 10
12 11 9 8 7 7 6 5 4 4 3 2 2 2 1 1 1 0 0 -0 -1 -1 -0 -0 -0 -0 -0 -0 0 1 2 2 3 4 6 6 7 7 7 8 9 9 9
11 9 9 8 7 6 5 4 4 3 2 2 2 1 1 1 0 0 0 -0 -0 0 0 -0 -0 0 0 1 1 1 2 2 2 3 5 7 7 7 7 8 8 9 9
9 8 7 6 6 5 4 4 3 3 2 2 1 1 1 0 0 0 0 0 0 -0 -1 -0 0 0 0 1 0 1 1 1 1 2 4 7 7 7 7 8 8 8 9
8 7 6 5 5 4 4 3 3 2 2 1 1 0 0 -0 -0 -1 -1 -0 -0 -0 -1 -0 0 0 0 0 0 1 1 1 1 3 5 7 7 7 8 8 8 8 8
6 6 5 5 4 4 3 3 2 2 1 1 0 -0 -0 -1 -1 -1 -0 0 0 -0 -1 -1 -0 -0 -0 -0 -0 0 1 1 1 3 5 7 8 8 8 8 8 8 8
5 5 4 4 3 3 3 2 2 1 1 -0 -0 -1 -1 -1 -1 -1 -0 -0 -0 -0 -1 -1 -1 -0 -0 -0 -0 -0 0 1 1 3 4 7 8 8 8 8 8 8 8
4 4 4 3 3 3 2 2 2 1 0 -1 -1 -1 -1 -1 -1 -1 -1 -1 -1 -0 -1 -1 -1 -1 -0 -0 -0 -0 0 1 1 2 4 7 8 8 8 9 8 8 8
3 3 3 3 3 2 2 1 0 -0 -1 -1 -1 -1 -2 -2 -2 -2 -2 -1 -1 -1 -1 -1 -1 -1 -1 -1 -0 -1 -0 1 1 2 3 6 8 8 8 9 8 8 8
3 3 3 2 2 2 1 0 -1 -1 -2 -1 -2 -2 -2 -2 -2 -2 -2 -1 -1 -1 -1 -2 -1 -1 -1 -1 -1 -1 -0 1 1 2 2 6 8 8 9 9 8 8 8
3 2 2 1 1 1 -0 -1 -2 -2 -2 -2 -2 -2 -2 -2 -2 -2 -2 -2 -1 -1 -1 -2 -1 -1 -1 -1 -1 -1 -0 1 1 2 4 5 8 8 9 9 9 8 9
2 2 1 1 0 -1 -2 -2 -2 -2 -2 -3 -3 -3 -2 -2 -2 -2 -2 -2 -1 -1 -1 -1 -1 -1 -1 -1 -1 -1 -0 1 1 2 3 5 7 9 9 9 9 9 9
2 1 1 -1 -2 -2 -2 -3 -3 -3 -3 -3 -3 -3 -3 -2 -2 -2 -2 -2 -2 -2 -1 -1 -1 -1 -1 -1 -1 -1 -0 0 1 2 3 5 7 9 9 9 9 8 8
0 -1 -2 -2 -3 -3 -3 -3 -3 -3 -3 -3 -3 -3 -3 -3 -2 -3 -2 -2 -2 -2 -2 -2 -1 -1 -1 -1 -0 -0 -0 1 2 2 4 6 8 9 9 9 9 9 9
-1 -2 -2 -3 -3 -4 -4 -4 -3 -3 -4 -4 -4 -4 -4 -3 -3 -3 -2 -2 -2 -2 -2 -1 -1 -1 -1 -0 -0 -0 0 1 2 3 5 6 7 9 9 9 9 9 9
-2 -3 -3 -3 -4 -4 -4 -4 -4 -4 -4 -4 -4 -4 -4 -4 -4 -3 -3 -2 -2 -2 -2 -1 -1 -1 -1 -0 -0 -1 1 2 3 4 5 6 7 8 8 9 9 9 9

GFSGL_850_temp_012.txt.gz
Temp
15 14 14 13 12 11 10 10 9 9 8 8 7 6 6 5 5 4 4 4 3 3 3 2 2 2 2 1 1 1 1 1 1 2 2 2 1 1 1 2 2 2 2
15 15 14 13 12 11 10 9 8 8 8 7 6 6 5 5 4 4 4 3 3 3 2 2 2 1 1 1 1 1 1 1 1 1 2 1 1 1 2 2 3 3 3
15 14 14 13 12 11 10 9 8 8 7 7 6 5 5 5 4 4 3 3 3 2 2 1 1 1 1 1 1 1 1 1 1 1 1 1 2 1 2 2 3 3 3
14 14 14 13 12 11 10 9 8 8 7 6 6 5 5 4 4 3 3 3 2 1 1 1 1 1 1 1 1 1 1 1 1 0 1 1 1 2 3 3 3 4 3
14 14 14 13 12 11 10 9 8 7 7 6 5 5 5 4 4 3 3 2 2 1 1 1 1 1 0 0 -0 0 0 0 0 1 1 2 2 3 3 4 3 4 4
14 14 13 13 12 11 10 8 7 7 6 5 5 5 4 4 3 3 2 1 1 1 1 1 1 1 1 0 -0 -0 0 0 1 1 2 2 3 4 4 4 4 4 4
12 13 13 12 12 11 9 8 7 7 6 6 5 5 4 3 3 2 2 1 0 1 1 0 -0 -0 -0 -1 -0 -0 -0 1 1 2 2 3 4 5 5 4 5 5 7
12 12 13 12 11 10 9 8 7 6 6 5 5 4 4 3 3 2 1 0 0 1 0 -0 -1 -1 -1 -1 -0 -0 0 1 2 2 2 3 4 5 5 4 5 6 8
12 13 12 12 11 10 9 8 7 6 6 5 5 4 3 3 2 1 1 1 0 1 0 -1 -1 -1 -1 -0 -0 0 1 1 1 2 3 4 5 6 5 6 6 7 8
11 13 13 12 11 10 9 8 7 6 6 5 4 4 3 2 2 1 1 0 0 -0 0 -0 -1 -1 -0 -0 -0 0 1 1 2 3 6 5 6 6 6 6 6 7 7
11 12 12 11 11 10 9 8 7 6 5 4 4 3 3 2 1 1 1 0 0 -0 -0 -0 -0 0 -1 -0 0 0 1 1 2 3 4 5 6 6 6 6 7 9 9
10 11 12 11 10 9 8 7 6 5 4 4 3 3 2 2 1 1 0 0 -0 -1 -0 -0 0 -0 -0 0 1 0 1 1 2 2 4 6 5 6 6 7 8 9 9
9 11 11 10 9 8 7 6 5 5 4 3 3 3 2 1 1 1 0 0 -0 -0 -0 -0 -0 -0 0 0 1 -0 1 1 2 2 2 6 6 6 6 7 8 9 10
9 10 10 9 8 7 6 6 5 4 3 3 2 2 2 1 1 0 0 0 -0 0 0 0 -0 -0 0 0 1 -0 1 1 1 1 2 4 7 7 7 7 8 8 9
9 9 8 8 7 6 5 5 4 3 3 2 2 2 1 1 0 0 -0 -0 -0 -0 -0 -0 -0 -0 0 0 1 1 0 1 1 1 2 3 5 7 7 7 8 9 9
8 8 7 7 6 6 5 4 3 2 2 2 1 1 0 0 -0 -1 -1 -0 -0 0 -0 -0 -0 -0 -0 -0 -0 0 -0 1 1 1 2 4 5 6 7 7 8 8 9
7 6 5 5 4 3 3 3 3 2 1 1 1 0 -0 -1 -1 -1 -1 -1 -0 -0 -1 -1 -1 -1 -1 -1 -1 -1 -0 1 1 1 2 3 5 7 7 7 8 8 9
3 2 1 2 2 3 3 2 2 2 1 0 -0 -0 -1 -1 -1 -1 -1 -1 -1 -1 -1 -1 -1 -1 -1 -1 -1 -1 -1 1 1 1 1 3 5 6 7 8 8 8 8
-0 0 2 2 2 2 2 2 2 1 -0 -0 -1 -1 -2 -2 -2 -2 -2 -2 -2 -1 -1 -2 -2 -2 -1 -1 -1 -1 -1 0 1 1 1 2 4 6 8 7 7 8 9
0 1 2 2 2 2 2 1 1 0 -1 -1 -1 -2 -2 -2 -2 -2 -2 -2 -2 -2 -1 -1 -2 -2 -2 -1 -1 -1 -1 0 1 1 1 2 3 6 8 8 7 8 8
1 2 2 2 2 2 1 0 -0 -1 -1 -2 -2 -2 -2 -3 -2 -2 -3 -2 -2 -2 -2 -1 -1 -2 -1 -1 -1 -1 -1 -0 0 1 1 2 3 7 8 8 7 9 8
3 3 2 1 1 0 -1 -1 -2 -2 -2 -2 -3 -3 -3 -3 -2 -2 -3 -2 -2 -2 -2 -2 -1 -1 -1 -1 -1 -1 -1 -1 0 1 1 2 3 6 8 8 8 9 8
2 1 1 0 -1 -2 -2 -2 -2 -3 -3 -3 -3 -3 -3 -3 -3 -3 -3 -2 -2 -2 -2 -2 -2 -1 -1 -1 -1 -1 -1 -1 0 1 2 2 4 7 8 8 8 8 8
1 0 -0 -1 -2 -2 -3 -3 -3 -3 -3 -3 -3 -4 -4 -3 -3 -3 -3 -3 -2 -2 -2 -2 -2 -2 -1 -1 -1 -1 -1 -1 0 1 2 3 5 6 8 8 8 9 8
0 -1 -2 -2 -3 -3 -3 -4 -4 -4 -4 -4 -4 -4 -4 -4 -4 -3 -3 -3 -2 -2 -2 -2 -2 -2 -1 -1 -1 -1 -0 -0 1 2 3 4 5 6 8 8 8 8 8
-1 -2 -2 -3 -4 -4 -4 -4 -4 -4 -4 -4 -4 -4 -5 -4 -4 -4 -4 -3 -3 -3 -3 -2 -2 -1 -1 -1 -1 -1 -0 0 1 2 3 4 5 6 7 8 8 8 8

GFSGL_850_temp_015.txt.gz
Temp
11 12 13 14 14 14 13 12 11 11 10 9 9 8 7 6 6 5 5 5 5 4 4 3 3 3 2 2 1 1 1 1 1 1 1 1 1 1 1 1 2 2 2
12 11 11 13 14 14 12 12 11 10 10 9 8 8 7 6 6 5 5 5 4 4 4 3 3 2 1 1 1 1 1 1 1 1 1 1 1 2 1 1 2 2 2
10 11 10 11 13 13 12 11 11 10 9 8 8 7 7 6 6 5 5 4 4 4 3 3 2 1 1 1 1 1 1 1 0 0 0 1 1 1 2 2 2 2 3
9 10 11 11 12 12 12 11 10 9 9 8 8 7 6 6 5 5 4 4 4 4 3 2 1 1 1 0 1 0 -0 -0 0 0 0 1 2 2 2 2 2 3 2
9 9 10 11 11 12 12 11 10 9 8 8 7 7 6 6 5 5 4 4 4 3 3 2 1 1 0 -0 -0 0 -0 -0 0 -0 0 1 1 1 2 2 3 3 3
8 9 9 9 10 11 11 10 9 9 8 7 7 6 6 5 5 4 4 4 3 2 2 1 1 1 1 0 -1 -1 -0 -0 -0 0 1 1 2 2 2 3 4 4 3
8 8 9 9 10 11 11 10 9 9 8 7 6 6 5 5 4 4 3 3 2 2 1 1 1 1 -0 -1 -1 -1 -0 -0 0 1 1 1 2 3 2 3 4 4 4
8 8 8 9 9 10 11 10 9 8 8 7 6 6 5 5 4 3 3 2 2 2 1 1 0 0 -1 -1 -0 -0 0 0 1 1 1 2 2 3 3 4 5 5 5
8 7 7 8 9 9 11 10 9 8 7 7 6 5 5 4 4 3 2 2 2 2 1 1 0 -0 -0 -0 0 0 1 1 1 2 2 2 3 4 5 5 5 5 5
7 6 7 8 9 9 10 10 9 8 7 6 6 5 4 4 3 3 2 2 2 1 1 1 0 -0 0 -0 -0 0 0 1 2 2 3 4 4 6 5 6 6 5 6
5 6 6 7 8 9 10 10 9 8 7 6 5 4 4 4 3 2 2 1 1 1 1 1 0 0 0 -0 -0 -0 -0 1 2 2 3 3 4 6 6 6 6 6 7
5 5 6 7 7 8 10 9 8 7 6 5 5 4 3 3 3 2 2 1 1 -0 -0 0 0 0 -0 0 0 0 -0 1 1 2 1 2 3 6 6 6 8 8 8
5 4 5 6 7 8 9 9 7 7 6 5 4 4 3 3 2 2 1 1 1 0 0 0 0 0 0 1 0 1 1 0 1 1 1 2 4 6 7 7 7 8 9
5 5 6 5 6 8 9 8 7 6 5 5 4 4 3 2 2 1 1 1 1 0 0 0 0 0 -0 0 0 0 1 0 1 1 1 3 5 7 7 7 7 8 8
3 4 3 7 6 7 8 7 6 6 6 5 4 3 3 2 2 1 0 0 0 0 -0 -0 -0 -0 -0 0 0 0 -0 -0 1 1 1 3 5 6 7 7 7 8 8
2 2 3 6 6 7 7 5 5 5 3 3 2 3 2 2 1 0 -0 -0 0 -0 -1 -1 -1 -1 -0 -0 -0 -0 -1 -1 0 1 1 2 4 5 7 7 7 8 8
2 3 5 6 6 6 5 4 3 2 2 2 2 2 1 1 0 -0 -1 -1 -0 -1 -1 -1 -1 -1 -1 -1 -1 -1 -1 -1 0 1 1 2 3 5 6 7 7 8 8
2 4 6 5 5 4 3 3 2 2 2 2 1 0 0 -0 -1 -1 -1 -1 -1 -1 -1 -1 -1 -1 -2 -1 -1 -1 -1 -1 0 1 1 2 3 4 6 7 7 8 8
3 2 2 2 2 3 2 2 1 -1 1 1 -0 -0 -1 -1 -1 -1 -2 -2 -2 -1 -1 -1 -1 -2 -2 -2 -1 -1 -1 -1 -0 0 1 2 2 4 6 7 7 7 8
1 1 1 1 1 1 -1 -1 -1 0 0 -0 -1 -1 -1 -2 -2 -2 -2 -2 -2 -2 -1 -1 -1 -1 -2 -2 -2 -1 -1 -1 -0 0 1 2 2 3 5 7 7 8 7
-1 -1 -1 -1 -1 -1 -1 0 1 0 -1 -1 -2 -2 -2 -2 -2 -2 -2 -3 -2 -2 -2 -2 -2 -2 -2 -2 -1 -1 -1 -1 -0 -0 1 1 1 3 5 7 7 8 8
-1 -1 -1 -1 -1 0 0 0 -0 -1 -2 -2 -2 -2 -3 -3 -3 -3 -2 -3 -2 -2 -2 -2 -2 -2 -1 -2 -1 -1 -1 -1 -0 -0 0 1 2 3 5 6 7 8 8
-1 -1 0 0 0 -0 -1 -1 -2 -2 -2 -3 -3 -3 -3 -3 -3 -3 -3 -3 -3 -2 -2 -2 -2 -2 -2 -2 -1 -1 -1 -1 -0 -0 0 1 2 3 4 6 7 7 7
-0 0 0 -0 -1 -1 -2 -3 -3 -3 -3 -3 -3 -3 -4 -4 -3 -3 -3 -3 -3 -2 -2 -2 -2 -2 -2 -2 -1 -1 -1 -1 -1 -0 0 1 2 3 5 7 7 7 7
0 0 -1 -1 -2 -2 -2 -3 -3 -4 -4 -4 -4 -4 -4 -4 -4 -4 -3 -3 -3 -3 -2 -2 -2 -2 -2 -2 -1 -1 -1 -1 -1 -0 0 2 3 4 5 6 7 7 7
-1 -2 -2 -3 -3 -4 -4 -4 -4 -4 -4 -4 -4 -4 -5 -5 -4 -4 -4 -4 -3 -3 -3 -3 -2 -2 -2 -2 -2 -1 -1 -1 -1 0 1 2 3 4 5 6 7 7 7

GFSGL_850_temp_021.txt.gz
Temp
10 10 10 11 11 11 11 10 11 11 10 10 12 13 12 10 10 8 8 7 6 6 5 5 5 5 4 4 4 4 3 3 3 3 3 3 4 3 3 3 3 3 3
9 9 9 10 10 10 11 11 11 11 10 9 11 12 12 11 9 8 7 6 6 5 5 5 5 4 4 4 3 3 3 3 3 3 3 3 3 3 3 3 3 3 3
8 8 8 9 9 9 10 11 10 11 10 8 9 12 11 10 9 8 7 6 6 6 5 5 5 4 4 4 4 3 3 3 3 3 3 3 2 2 2 2 2 3 3
7 7 8 8 8 9 9 10 10 10 10 8 8 11 11 10 9 8 6 6 6 5 5 5 4 4 4 3 3 3 3 3 2 2 2 2 2 2 2 2 2 2 2
6 6 7 7 7 8 9 9 10 10 9 8 8 9 10 9 8 7 6 6 6 5 5 4 4 4 3 2 2 2 1 1 1 1 1 1 1 1 2 2 2 2 2
6 6 5 6 6 7 8 8 9 10 9 9 8 8 9 8 8 7 7 6 6 5 5 4 4 4 3 2 1 1 1 1 1 1 1 1 1 2 2 2 1 1 2
6 6 5 5 5 6 7 7 8 9 9 9 8 7 8 8 7 7 7 7 5 4 4 4 4 4 3 2 2 1 1 1 2 2 2 2 2 2 2 2 2 2 2
7 6 5 5 5 5 6 7 7 8 9 9 8 7 7 6 7 8 8 6 4 4 4 4 3 3 2 2 1 1 1 1 2 2 2 2 2 2 2 2 2 2 3
6 5 5 5 4 4 5 6 7 8 8 8 8 7 6 6 7 8 7 6 5 4 4 3 3 2 2 1 1 1 1 2 2 2 2 2 2 1 2 2 2 4 4
6 4 4 4 4 4 4 5 6 7 8 8 7 7 6 6 7 7 7 5 4 4 3 3 2 2 2 1 1 1 1 1 1 1 1 1 1 2 3 4 5 5 5
3 4 3 3 3 4 4 4 6 7 7 7 7 6 6 5 7 7 6 5 4 4 4 3 3 2 1 1 1 0 0 0 1 1 1 1 2 3 5 6 6 5 5
2 2 3 3 3 3 3 4 6 6 7 7 7 6 5 5 6 6 6 5 4 3 3 3 2 2 1 1 1 1 0 1 1 1 1 2 2 3 6 6 6 6 6
1 2 3 3 4 4 4 3 5 6 6 6 6 5 5 5 4 6 5 5 4 3 2 2 1 1 1 1 1 1 1 0 0 0 1 2 2 3 5 7 7 8 7
1 2 3 4 5 4 3 3 4 6 6 6 5 5 5 4 4 5 5 4 3 3 2 2 1 1 1 0 1 0 0 0 0 0 1 2 2 4 6 7 7 8 8
0 1 3 3 4 3 3 3 4 6 6 6 5 5 4 4 4 6 4 3 2 1 1 1 0 1 1 1 1 0 0 0 0 0 1 2 2 4 6 7 7 7 8
-1 -0 1 1 2 3 2 1 3 5 5 5 5 6 5 5 4 4 3 3 2 2 1 1 0 0 0 1 0 0 0 0 -0 0 1 1 2 3 5 7 7 8 8
-1 -1 -1 -1 1 1 1 1 3 5 5 4 4 6 6 5 4 4 3 2 2 1 1 -0 -0 -0 0 0 -0 -0 -0 -0 -1 -0 0 1 2 3 5 6 7 7 8
-1 -1 -1 -1 0 1 3 0 1 2 3 3 4 5 4 4 4 3 2 1 -0 0 0 -0 -0 -0 -0 -0 -1 -1 -1 -1 -1 -0 0 1 1 2 4 5 6 7 7
-1 -1 -1 -1 -0 2 2 2 1 2 3 3 3 3 3 3 2 1 1 0 -0 -0 -1 -1 -1 -1 -1 -1 -1 -1 -1 -1 -0 0 0 1 1 2 3 5 6 7 7
-1 -1 -1 -1 -0 1 1 1 1 2 3 3 2 2 1 1 1 0 -0 -1 -1 -0 -1 -1 -1 -1 -1 -1 -1 -1 -1 -1 -1 -0 0 0 1 1 2 4 5 6 6
-1 -1 -1 -1 -1 -0 1 2 2 3 3 2 1 1 1 0 -1 -1 -1 -1 -1 -1 -1 -1 -1 -1 -1 -1 -1 -1 -1 -1 -1 -0 -0 0 0 1 2 3 4 5 7
-1 -1 -1 -1 -2 -1 -0 0 0 2 2 0 -1 -1 -1 -1 -1 -1 -1 -1 -1 -2 -1 -1 -1 -1 -2 -2 -1 -1 -1 -1 -1 -1 -0 -0 0 1 1 2 4 5 6
-1 -1 -0 -0 -0 -0 0 1 0 -0 -1 -2 -1 -1 -1 -1 -2 -2 -2 -2 -2 -2 -2 -2 -2 -2 -2 -2 -2 -1 -1 -1 -1 -1 -1 -0 0 1 1 2 3 5 6
-2 -1 -1 -1 -1 -1 -1 -1 -2 -2 -1 -1 -2 -2 -2 -2 -2 -2 -2 -2 -2 -2 -2 -3 -2 -2 -2 -2 -1 -1 -1 -1 -1 -2 -2 -1 0 1 1 2 3 4 5
-2 -2 -2 -2 -2 -2 -2 -2 -2 -2 -2 -2 -2 -3 -3 -3 -3 -3 -3 -3 -3 -3 -3 -3 -3 -3 -2 -2 -2 -2 -1 -2 -2 -2 -2 -2 -1 0 1 1 2 4 5
-2 -2 -2 -2 -3 -3 -3 -3 -3 -3 -3 -3 -4 -4 -4 -4 -4 -4 -4 -4 -3 -3 -3 -3 -3 -3 -2 -2 -2 -2 -2 -1 -2 -2 -2 -2 -1 0 0 1 2 3 5

GFSGL_850_temp_024.txt.gz
Temp
9 9 8 8 8 9 10 11 12 11 11 11 9 10 11 10 11 11 11 11 10 9 8 8 8 8 6 6 6 5 5 4 3 3 3 3 3 3 3 3 3 3 3
9 8 8 7 7 8 9 10 11 11 11 11 10 10 10 10 10 11 11 11 10 9 9 8 7 7 6 6 6 5 4 4 3 3 3 3 3 2 2 2 2 2 2
8 8 7 7 6 6 8 9 9 10 11 11 10 9 10 9 9 10 11 11 10 9 8 8 7 6 6 5 5 4 4 3 3 3 3 2 2 2 2 2 2 3 3
7 8 7 6 6 6 6 8 8 10 10 11 10 9 9 9 9 9 10 10 9 8 8 7 6 5 5 5 4 4 3 3 3 2 2 2 1 1 1 2 2 2 2
7 7 7 6 6 5 5 6 7 8 10 11 10 9 9 8 8 8 9 9 8 7 7 6 6 5 5 5 4 4 3 3 2 1 1 1 1 1 2 2 1 2 2
7 7 7 6 6 5 4 4 6 7 9 10 10 9 8 8 8 8 9 9 8 7 6 6 5 5 4 4 4 3 2 1 1 1 1 2 2 2 2 2 2 2 1
6 6 6 6 6 5 4 3 4 5 8 9 10 8 8 7 7 8 8 8 7 7 6 6 5 5 4 4 3 3 2 2 1 2 2 2 2 2 2 2 2 2 2
6 6 6 6 5 5 4 3 3 4 6 8 9 9 8 7 7 7 7 8 7 7 6 5 5 4 4 3 3 3 3 2 1 1 2 2 2 2 2 1 1 2 2
5 5 5 5 5 4 4 3 2 3 5 7 9 9 8 7 7 7 6 7 6 6 5 5 4 4 3 3 3 3 2 2 1 1 2 2 2 1 2 2 2 2 2
4 5 4 4 4 3 3 3 3 3 4 7 9 8 8 7 7 6 6 6 6 5 5 4 4 4 3 3 2 2 2 1 1 2 2 2 2 3 3 3 3 2 2
3 4 3 3 2 2 2 3 3 3 3 6 8 8 7 7 7 6 6 6 6 5 4 4 3 3 2 2 2 2 1 1 1 1 1 2 2 3 4 5 5 5 3
3 3 2 2 1 2 2 3 3 3 3 5 8 8 7 7 7 6 6 6 5 5 4 4 3 3 2 2 2 1 1 0 1 0 1 2 2 3 5 6 7 6 6
2 2 1 2 1 2 3 3 3 2 2 4 7 7 6 6 6 6 5 5 4 4 4 3 3 2 2 2 2 1 1 0 0 0 0 1 2 3 5 6 7 7 8
1 1 1 1 1 1 3 4 4 2 2 3 7 6 5 5 5 5 5 4 4 4 4 4 2 2 2 2 1 1 0 0 0 -0 0 1 2 4 6 6 7 7 7
0 0 0 0 0 1 2 4 4 2 2 3 6 6 5 5 5 6 6 5 5 4 4 3 1 1 1 1 1 0 1 0 -0 -0 0 1 2 4 6 6 7 7 7
-0 -0 0 -1 -0 0 1 2 2 2 2 4 6 6 5 6 6 5 5 5 4 4 4 2 1 0 1 1 0 0 1 -0 -1 -1 0 1 2 3 5 6 7 7 7
-1 -0 -1 -1 -1 -0 0 1 1 1 2 5 5 5 5 6 5 5 5 4 3 3 3 1 0 0 0 0 0 -0 0 -0 -1 -1 0 1 2 3 3 5 6 7 6
-1 -1 -1 -1 -1 -1 0 1 0 1 1 4 4 4 5 5 4 4 4 3 2 2 2 1 0 0 -0 -0 -0 -1 0 -1 -1 -1 0 1 1 2 3 4 5 6 7
-1 -1 -1 -1 -1 -1 0 -0 -0 -0 2 3 3 3 4 3 3 3 3 3 2 1 1 -0 -0 -0 -1 -1 -1 -1 -0 -1 -0 -0 -0 0 1 2 2 3 5 6 7
-1 -1 -2 -1 -1 -0 -0 -1 -1 -0 2 2 2 2 2 3 3 2 2 1 0 -0 -0 -1 -1 -1 -1 -1 -1 -1 -1 -1 -0 -1 -0 0 1 2 2 3 4 6 6
-1 -2 -1 -1 -1 -1 -1 -1 -1 -1 -0 1 1 1 2 3 2 2 1 0 -0 -0 -1 -1 -1 -1 -1 -1 -1 -1 -1 -1 -1 -1 -1 -0 0 1 2 2 3 5 6
-2 -2 -1 -1 -1 -1 -1 -1 -1 -1 -1 -1 -1 -1 -0 1 -0 -0 -0 -1 -1 -1 -1 -1 -1 -1 -2 -2 -2 -1 -1 -1 -1 -1 -2 -1 -0 1 2 2 3 4 5
-1 -1 -1 -1 -1 -1 -1 -1 -1 -1 -1 -1 -1 -1 -1 -1 -1 -1 -1 -1 -1 -1 -1 -1 -2 -2 -2 -2 -2 -2 -1 -1 -1 -1 -2 -2 -1 1 1 2 2 4 5
-1 -1 -1 -1 -1 -1 -0 -0 -1 -1 -1 -2 -2 -2 -2 -2 -2 -2 -2 -2 -2 -2 -2 -2 -2 -2 -2 -2 -2 -2 -2 -2 -1 -1 -2 -2 -2 0 1 1 2 3 4
-2 -2 -2 -2 -2 -2 -2 -2 -2 -2 -2 -2 -2 -2 -2 -2 -2 -2 -2 -2 -2 -2 -3 -3 -3 -3 -3 -3 -2 -2 -2 -2 -2 -2 -2 -3 -2 -1 0 1 2 3 3
-3 -3 -2 -2 -2 -2 -2 -2 -2 -2 -3 -3 -3 -3 -3 -3 -3 -3 -3 -3 -3 -3 -3 -3 -3 -3 -3 -3 -3 -2 -2 -2 -2 -2 -3 -3 -2 -1 -1 0 1 2 3

GFSGL_850_temp_027.txt.gz
Temp
8 8 7 7 7 7 7 7 7 8 9 9 10 11 11 11 11 11 10 10 10 10 10 10 10 10 9 8 7 7 7 6 5 6 6 5 4 4 3 3 3 3 3
7 7 7 7 7 7 7 7 7 7 7 9 9 10 11 11 11 11 10 10 9 9 9 9 9 9 8 8 7 7 6 5 4 4 5 4 4 4 3 3 3 3 3
6 6 6 6 7 7 7 7 6 7 7 7 8 8 10 10 10 10 10 9 10 9 9 9 9 9 8 7 7 6 6 5 4 3 3 3 4 3 3 3 3 3 3
6 6 6 6 6 6 6 6 6 6 6 6 6 6 8 10 10 10 10 9 9 9 9 8 8 8 8 7 7 6 5 4 4 3 3 3 3 3 2 2 2 3 2
5 5 6 6 6 6 6 5 5 5 5 4 5 5 7 9 9 10 10 9 9 8 8 8 7 7 7 6 6 5 5 4 4 3 3 3 3 2 2 2 1 2 1
5 5 5 5 5 5 5 5 4 4 4 4 4 4 6 8 9 9 9 9 8 8 8 7 7 6 6 6 5 5 5 4 3 2 2 1 1 2 1 1 1 1 1
4 4 5 5 5 5 4 4 4 4 3 3 3 4 5 7 9 9 9 8 8 8 7 7 6 6 6 5 5 4 3 3 2 2 1 2 1 1 1 1 1 1 2
4 4 4 4 4 4 4 4 4 3 3 2 2 4 5 6 9 8 8 8 7 7 7 6 6 6 6 5 4 4 4 3 3 3 2 1 1 1 1 1 1 1 2
4 3 3 3 3 3 3 3 2 2 2 2 1 3 5 6 8 8 7 7 7 6 6 6 6 6 5 4 4 4 4 4 3 2 2 2 2 2 2 2 2 1 1
3 3 2 2 2 2 2 2 2 2 2 3 1 3 4 6 7 7 7 7 6 6 6 5 5 5 4 4 4 4 4 3 3 3 3 2 2 3 3 3 2 2 2
3 2 2 2 2 2 1 1 1 1 2 2 1 3 3 5 7 7 7 7 6 6 6 5 5 4 4 4 4 4 3 2 2 2 2 2 2 3 4 5 6 3 2
2 1 1 1 1 1 1 1 1 1 2 1 1 2 3 6 7 7 7 7 6 6 6 5 5 4 3 3 3 3 2 1 1 2 1 1 2 3 5 6 6 6 6
1 0 -0 0 0 1 1 1 1 2 2 1 1 2 3 6 7 7 7 6 6 5 5 5 4 3 3 3 3 2 1 1 1 1 1 1 1 3 5 6 7 7 6
-0 -1 -1 -1 -0 0 1 1 0 1 2 2 1 2 3 5 6 6 6 5 5 5 4 4 4 3 3 2 2 1 1 0 0 1 0 1 2 4 5 6 6 7 6
-2 -2 -2 -1 -1 0 0 0 0 2 2 2 2 2 3 5 6 6 6 5 5 4 4 4 3 3 2 2 1 1 0 0 0 1 -0 0 2 4 5 6 6 7 7
-2 -2 -2 -2 -1 -0 -1 -0 1 2 2 1 2 2 2 7 7 6 5 4 4 4 4 4 3 3 2 1 1 0 0 -0 0 0 -0 0 2 3 5 6 6 7 6
-2 -2 -2 -2 -1 -1 -1 -1 -1 2 2 1 1 1 4 6 6 6 5 4 4 4 4 3 3 2 1 1 1 0 -0 -0 -1 -1 -0 0 2 3 4 6 6 6 6
-2 -2 -2 -1 -1 -1 -1 -1 0 1 1 2 0 1 4 4 6 5 4 4 3 3 3 3 2 1 0 1 1 0 -0 -1 -1 -1 -0 0 2 2 4 5 6 6 7
-2 -2 -1 -2 -2 -2 -1 -0 1 0 1 1 0 2 3 3 5 4 4 4 3 2 2 1 1 0 0 0 1 -0 -1 -1 -1 -1 -0 0 1 2 3 4 5 6 6
-2 -2 -2 -1 -1 -1 -0 0 0 0 1 1 0 1 3 3 3 3 2 2 2 2 1 1 -0 -0 -0 -0 0 -0 -1 -1 -1 -1 -1 -0 1 2 3 4 5 6 6
-2 -1 -1 -1 -1 -0 -0 -1 -0 -0 -0 -0 0 1 2 3 2 2 2 1 1 1 0 0 -1 -1 -1 -1 -0 -1 -1 -1 -1 -1 -1 -1 1 1 2 3 4 5 6
-2 -2 -1 -1 -1 -1 -1 -1 -0 -0 -1 -0 -0 1 2 2 1 1 -0 -0 -0 -0 -1 -1 -1 -1 -1 -1 -1 -1 -1 -1 -1 -1 -1 -1 1 1 1 3 4 5 6
-2 -2 -2 -1 -1 -1 -1 -1 -1 -1 -1 -1 0 0 -0 -1 -1 -1 -1 -1 -1 -1 -1 -1 -1 -1 -2 -2 -2 -2 -1 -2 -1 -1 -1 -1 -0 1 2 2 3 5 5
-2 -1 -1 -1 -1 -1 -1 -1 -1 -1 -1 -1 -1 -2 -1 -1 -1 -1 -1 -1 -1 -1 -1 -1 -2 -2 -2 -3 -2 -2 -2 -2 -2 -2 -2 -1 -1 0 2 1 2 4 4
-2 -2 -2 -2 -1 -1 -2 -2 -2 -2 -2 -2 -2 -2 -2 -2 -2 -2 -2 -2 -2 -2 -2 -3 -3 -2 -3 -3 -2 -2 -2 -2 -2 -2 -2 -3 -3 -2 -1 -0 1 2 4
-3 -2 -2 -2 -2 -2 -2 -2 -2 -2 -2 -2 -2 -2 -2 -2 -2 -2 -2 -2 -2 -3 -3 -3 -3 -3 -3 -3 -2 -2 -2 -2 -2 -2 -3 -3 -3 -2 -1 -1 1 1 2

GFSGL_850_temp_030.txt.gz
Temp
7 6 6 6 7 6 6 7 7 6 6 6 6 7 8 8 8 8 10 11 11 12 10 10 10 10 9 9 8 8 8 8 8 8 7 7 6 6 5 5 4 4 4
6 6 6 6 6 6 6 6 6 6 6 6 6 6 7 7 7 7 8 10 11 11 10 10 10 9 9 8 8 8 8 7 7 7 7 6 6 5 5 4 4 4 4
5 5 5 5 5 5 6 6 6 5 5 5 5 5 5 6 6 6 7 8 10 11 11 10 9 9 8 8 7 7 7 6 6 5 6 6 6 5 4 4 4 4 3
5 5 5 4 4 5 5 5 5 5 5 5 5 4 4 5 5 5 6 7 9 11 10 9 9 9 9 8 7 7 6 6 5 5 5 5 4 4 4 3 3 3 3
5 4 4 4 4 4 4 4 5 5 4 4 4 4 4 4 5 5 6 6 7 10 10 9 9 8 8 8 7 7 6 5 5 4 4 4 4 4 3 3 2 3 5
4 4 4 4 4 4 4 4 4 4 4 3 3 3 3 3 5 5 6 6 7 9 9 9 8 8 7 7 6 6 6 5 5 4 4 3 3 3 2 1 2 2 2
3 4 4 3 3 3 3 3 3 3 3 3 3 2 2 2 3 4 4 6 6 8 9 8 8 7 7 6 6 5 5 5 4 4 3 3 2 2 1 2 3 2 2
3 3 3 3 3 3 3 2 2 2 2 2 2 1 1 2 2 3 4 5 5 7 9 8 7 7 7 6 5 4 4 4 4 3 2 3 2 2 2 2 2 2 2
2 2 3 3 2 2 2 2 2 2 2 1 1 1 1 1 2 3 4 4 3 6 8 7 7 7 6 5 5 5 4 4 3 3 3 2 2 3 2 1 2 2 2
1 2 2 2 2 2 1 1 1 1 1 1 0 1 1 1 2 3 4 4 3 6 7 7 7 6 6 5 5 5 4 4 3 3 2 3 3 3 3 3 3 1 1
1 0 1 1 1 1 1 1 1 1 1 0 0 1 0 1 2 3 4 4 4 6 6 6 6 5 5 5 4 4 3 3 2 2 2 3 4 4 4 5 4 3 2
0 0 0 0 0 -0 -0 0 0 0 0 -0 1 0 0 1 2 3 4 4 3 6 6 6 6 5 5 4 4 3 3 2 1 2 2 3 4 4 5 5 6 6 6
-1 -0 -1 -0 -1 -1 -1 -1 -1 0 -0 -0 0 0 0 2 2 4 4 3 3 6 6 6 5 5 4 3 3 2 2 1 2 2 2 3 3 4 5 6 6 6 6
-2 -2 -1 -1 -1 -2 -1 -1 -1 -1 -1 -0 1 1 1 1 2 3 3 3 5 6 6 5 4 4 4 3 2 2 1 1 2 1 2 2 3 4 5 6 6 6 5
-2 -2 -2 -2 -2 -2 -2 -1 -1 -0 -1 -1 1 1 1 2 3 3 2 3 5 5 5 4 3 3 3 2 2 1 1 1 1 1 0 1 3 4 6 6 6 5 5
-2 -3 -2 -2 -2 -2 -2 -1 -1 -1 -0 1 1 0 1 2 3 3 4 5 5 4 4 4 3 3 2 2 1 1 1 1 0 -1 -0 1 2 4 5 6 6 5 5
-3 -2 -2 -2 -2 -2 -1 -1 -1 1 1 1 1 0 1 2 3 3 4 5 4 4 4 3 3 2 2 1 1 0 1 0 -1 -1 -0 1 2 4 5 6 6 5 5
-3 -3 -3 -2 -2 -1 -1 -1 -1 -1 0 2 1 1 1 2 2 3 4 4 4 4 4 4 3 2 1 1 0 0 0 -0 -1 -1 -0 1 2 4 5 5 6 6 5
-2 -2 -2 -2 -2 -2 -2 -2 -1 -0 1 0 0 1 2 2 1 2 4 4 4 3 3 3 2 1 1 0 0 0 -0 -1 -1 -1 -0 1 2 4 4 5 6 6 6
-2 -2 -2 -2 -1 -2 -2 -1 -0 1 0 0 1 2 2 1 1 2 3 4 4 3 3 2 1 0 0 0 0 -0 -0 -1 -1 -1 -0 1 2 3 4 5 5 6 6
-2 -2 -1 -1 -1 -1 -0 0 0 -0 -0 0 1 1 1 1 2 2 3 3 3 3 1 1 0 -0 -0 -0 -0 -0 -0 -1 -1 -1 -0 1 2 3 3 4 5 5 6
-1 -2 -1 -1 -1 -1 -1 -1 -0 -0 -0 0 0 1 1 2 2 2 2 2 2 0 0 0 -0 -1 -1 -1 -1 -1 -1 -1 -1 -1 -1 -0 1 2 3 4 5 5 6
-2 -1 -1 -1 -1 -1 -1 -1 -1 -0 -0 -0 0 -0 1 1 1 1 1 -0 -0 -0 -1 -1 -1 -1 -1 -1 -1 -1 -1 -1 -1 -1 -1 -0 0 1 2 3 4 5 5
-2 -2 -2 -2 -1 -1 -1 -1 -1 -1 -1 -1 -0 -0 0 -0 -1 -0 -0 -1 -1 -1 -1 -1 -1 -2 -2 -2 -2 -2 -2 -2 -2 -2 -2 -1 0 1 1 2 3 3 4
-2 -2 -2 -2 -2 -2 -1 -1 -2 -2 -1 -1 -1 -1 -1 -1 -1 -1 -1 -1 -1 -1 -1 -2 -2 -2 -3 -2 -3 -2 -2 -2 -2 -2 -2 -3 -3 -1 -1 -0 0 2 3
-3 -2 -2 -2 -2 -2 -2 -2 -2 -2 -2 -2 -2 -2 -2 -2 -2 -2 -2 -2 -2 -2 -2 -2 -2 -3 -3 -3 -2 -2 -2 -2 -2 -2 -3 -3 -3 -2 -3 -2 -1 1 2

GFSGL_850_temp_033.txt.gz
Temp
6 6 6 6 6 6 6 7 6 6 6 5 6 5 5 6 6 7 7 7 7 7 8 9 11 11 11 10 9 9 9 9 8 9 8 8 8 7 7 6 6 6 5
6 6 6 6 6 5 5 5 5 5 5 5 5 5 5 5 6 6 6 6 6 6 6 7 10 11 10 10 9 9 9 8 8 8 7 7 7 7 6 6 6 5 5
5 5 5 5 5 5 4 4 4 5 5 4 5 5 4 4 5 5 5 5 5 5 6 6 7 9 10 9 9 9 8 8 8 7 7 7 7 6 6 5 5 5 4
4 4 4 4 4 4 4 4 4 4 4 4 4 4 4 4 4 5 5 5 5 5 6 5 6 7 9 9 9 9 8 7 7 6 6 6 6 6 5 5 4 4 5
3 4 4 4 4 4 4 3 3 3 3 3 3 3 3 3 4 4 4 4 4 4 5 5 4 8 8 9 9 8 8 7 7 6 6 6 6 5 5 4 3 4 5
2 3 3 3 3 3 3 3 3 3 3 3 3 2 2 2 3 3 3 2 3 4 4 7 7 6 7 8 8 8 8 7 7 6 5 5 6 5 4 3 4 3 3
1 2 2 2 2 2 3 3 2 2 2 2 2 2 2 2 2 1 2 2 3 4 4 6 5 5 7 8 8 7 7 6 6 5 5 5 4 4 3 3 3 2 3
0 1 1 1 1 2 2 2 2 2 2 2 1 1 1 2 1 1 1 1 3 4 4 5 5 5 7 7 7 7 6 6 5 5 5 4 3 3 3 3 3 2 2
-0 0 0 0 1 1 1 2 2 1 1 1 1 1 1 1 1 0 1 1 2 3 3 4 5 5 7 7 6 6 6 5 5 4 3 3 3 3 3 1 1 1 1
-1 -1 -0 -0 0 0 0 1 1 1 0 0 -0 1 1 1 1 0 0 1 2 3 4 5 4 5 6 6 6 6 5 5 4 4 3 3 3 3 3 2 2 1 3
-2 -2 -2 -1 -1 -0 0 -1 -0 -0 -1 -0 -0 0 1 1 1 0 0 1 3 3 2 3 3 5 6 6 6 6 5 4 4 3 3 3 4 4 4 3 4 4 3
-3 -3 -3 -2 -1 -1 -1 -1 -1 -1 -1 -1 -1 -0 1 1 1 0 1 3 3 3 3 4 4 5 5 5 5 4 4 3 3 3 3 3 3 3 4 5 5 5 4
-3 -3 -3 -3 -2 -2 -2 -2 -1 -1 -2 -2 -1 -1 0 0 0 0 2 3 3 3 4 4 5 5 5 5 4 4 3 3 3 2 2 3 3 3 5 5 5 5 5
-3 -3 -4 -3 -3 -2 -2 -2 -2 -2 -2 -1 -1 -1 -0 1 0 1 2 3 3 3 3 4 5 4 4 4 3 3 2 2 2 2 2 2 3 5 5 5 5 5 4
-3 -4 -3 -3 -2 -2 -2 -2 -2 -2 -1 -1 -1 -1 -0 0 1 2 3 2 2 2 2 4 4 4 3 3 2 2 1 1 1 1 1 2 4 4 4 5 5 5 4
-3 -3 -3 -3 -3 -2 -2 -2 -1 -1 -1 -1 -1 -1 0 0 1 2 3 2 3 2 4 4 3 3 3 3 2 1 1 1 0 1 1 2 3 4 4 5 5 5 4
-2 -3 -3 -3 -3 -3 -3 -2 -2 -1 -1 -1 1 1 1 1 2 2 2 2 2 4 5 3 3 3 3 2 1 1 0 -0 0 0 1 2 3 4 4 5 5 5 4
-2 -2 -2 -2 -2 -3 -2 -2 -2 -2 -2 1 1 1 1 2 2 1 1 3 3 4 4 3 3 3 2 1 0 0 0 -0 -0 -0 1 2 2 4 5 5 5 5 4
-2 -2 -2 -2 -2 -2 -2 -2 -2 -2 -1 1 1 1 2 1 1 2 2 4 4 3 3 3 3 2 1 0 0 -0 -0 0 -0 0 1 2 2 3 5 5 5 5 5
-2 -2 -1 -1 -1 -1 -2 -2 -2 -1 0 0 0 1 1 1 1 1 2 3 3 3 3 3 2 1 0 0 -0 -0 -0 -0 -0 0 1 1 2 2 4 5 5 5 5
-1 -2 -1 -1 -1 -0 0 0 0 -0 -0 0 1 1 1 1 1 2 2 2 3 2 2 1 1 0 -0 -0 -0 -0 -1 -0 -0 -0 1 1 2 2 3 5 5 5 4
-2 -2 -2 -1 -1 -1 -1 -0 -0 0 1 1 1 1 1 1 1 2 2 2 2 2 1 1 -0 -0 -1 -0 -1 -1 -1 -1 -1 -0 0 1 2 2 3 4 5 5 5
-2 -2 -2 -2 -1 -1 -1 -1 -0 -0 0 0 0 0 0 1 1 1 2 1 1 -0 -0 -0 -1 -1 -1 -1 -1 -1 -1 -1 -1 -1 -0 1 1 2 2 3 4 5 5
-2 -2 -2 -2 -2 -1 -1 -1 -0 -0 -1 -1 -1 -0 0 1 -0 -1 -1 -0 -1 -1 -1 -1 -1 -2 -2 -2 -2 -2 -2 -2 -2 -1 -1 0 1 1 2 2 3 4 5
-3 -2 -2 -2 -2 -2 -2 -2 -2 -2 -2 -2 -1 -1 -1 -1 -1 -1 -1 -1 -1 -1 -2 -2 -2 -2 -2 -3 -3 -3 -3 -2 -2 -2 -2 -2 -1 -1 0 1 2 2 3
-3 -2 -2 -2 -2 -2 -2 -2 -2 -2 -2 -2 -1 -1 -1 -1 -2 -2 -1 -1 -2 -2 -2 -2 -2 -3 -3 -3 -3 -3 -3 -2 -2 -3 -3 -2 -2 -1 -1 -1 1 2 3

GFSGL_850_temp_036.txt.gz
Temp
6 6 5 5 5 5 5 5 5 4 4 5 5 5 5 5 5 5 5 6 6 7 6 6 7 7 7 8 9 9 10 10 9 10 9 9 9 9 9 8 8 8 7
4 4 4 4 4 4 5 5 5 4 4 4 4 4 4 5 5 4 5 5 5 5 6 5 6 6 6 7 8 8 9 9 9 9 9 9 9 8 8 7 7 7 7
3 3 3 3 3 4 4 4 4 4 4 4 4 4 4 4 4 3 4 4 5 5 5 5 5 5 5 5 7 7 8 9 9 9 8 8 8 7 7 7 7 7 6
2 2 2 2 2 3 3 3 3 3 3 3 3 3 3 3 3 3 3 4 4 5 5 5 5 5 5 5 5 7 8 8 8 8 8 7 7 7 6 7 7 6 6
0 0 1 1 1 1 2 2 2 3 3 3 3 3 3 3 2 2 2 2 4 4 4 4 4 4 5 5 6 7 7 8 8 8 7 7 7 6 7 7 6 5 6
-1 -1 -0 -0 0 0 1 1 1 2 2 2 3 2 2 2 2 1 1 1 2 1 2 3 4 3 4 5 6 6 7 8 8 8 8 7 7 7 6 5 5 4 5
-2 -2 -1 -1 -1 -0 0 0 1 1 2 2 2 2 2 1 1 1 1 1 1 1 2 2 2 3 3 4 4 4 5 7 8 9 8 8 7 6 5 5 5 4 4
-3 -3 -2 -2 -1 -1 -1 -0 0 0 1 1 1 1 1 1 1 1 0 0 1 1 1 2 1 3 3 5 5 5 5 7 7 7 7 6 6 5 5 5 4 3 4
-3 -3 -3 -3 -3 -2 -1 -1 -1 -0 -0 0 0 0 0 1 1 0 -0 0 0 1 1 1 2 3 4 4 4 4 5 6 6 6 6 5 5 4 4 4 3 2 3
-3 -3 -3 -3 -3 -3 -3 -2 -2 -1 -1 -1 -1 -0 -0 -0 0 0 -1 0 0 1 1 1 2 3 3 3 3 3 5 6 5 5 5 5 4 4 4 3 3 2 2
-3 -3 -3 -3 -3 -3 -3 -3 -2 -2 -2 -1 -1 -1 -0 -0 0 1 -0 0 0 1 1 1 2 3 3 4 3 4 6 6 5 4 4 4 4 4 4 3 3 3 2
-3 -2 -3 -3 -3 -3 -3 -3 -2 -2 -2 -2 -1 -1 -1 -2 -1 -0 -0 0 1 0 0 2 2 2 3 3 3 5 5 4 4 4 4 4 3 4 4 4 4 4 3
-2 -2 -3 -3 -3 -4 -3 -3 -3 -2 -2 -2 -2 -2 -1 -0 -1 0 0 0 1 1 1 2 2 3 3 3 4 4 4 4 4 4 4 3 3 4 4 4 5 4 3
-2 -3 -3 -3 -4 -3 -3 -2 -2 -2 -3 -2 -2 -2 -1 -1 -1 -0 0 1 2 1 0 2 2 2 2 4 4 4 3 3 3 3 2 3 3 4 4 4 4 5 4
-3 -2 -3 -4 -3 -3 -2 -2 -2 -2 -2 -2 -2 -1 -1 -0 -1 -0 0 2 1 1 2 3 2 3 3 3 3 2 2 2 2 2 2 3 3 4 4 5 5 4 4
-2 -2 -2 -3 -3 -3 -3 -3 -2 -2 -2 -2 -1 -1 -1 -1 -0 1 2 1 1 2 2 2 2 3 3 2 2 2 1 1 1 1 2 2 3 4 5 5 5 4 4
-2 -2 -2 -2 -2 -2 -2 -2 -2 -2 -1 -1 -1 -0 1 1 1 2 1 1 1 1 1 2 2 2 2 2 1 1 0 0 0 1 2 2 3 4 5 5 4 4 4
-2 -2 -2 -2 -2 -2 -2 -2 -2 -2 -2 -1 1 1 1 2 1 1 1 0 0 1 2 2 2 2 2 1 -0 0 0 -1 -0 1 2 3 4 4 4 5 4 4 4
-2 -2 -2 -1 -1 -1 -1 -2 -2 -2 -1 -0 0 1 1 1 1 0 1 1 1 3 3 1 0 1 0 0 0 -0 -1 -1 0 1 2 3 3 4 4 5 5 4 4
-2 -2 -2 -1 -1 -0 -1 -2 -2 -1 0 -0 1 1 2 1 1 1 2 3 3 2 0 -0 0 -0 -0 0 -0 -1 -1 -1 1 2 2 3 3 3 4 4 5 4 4
-2 -2 -2 -2 -1 -0 0 -0 -0 -0 -0 0 1 1 1 1 1 2 2 1 1 -1 -0 -1 -1 -0 -0 -0 -1 -1 -1 -1 1 2 3 3 3 4 4 4 4 4 4
-2 -2 -2 -2 -2 -1 -1 -0 -0 0 0 0 0 1 1 2 2 2 1 0 -1 -1 -0 0 0 -0 -1 -1 -1 -1 -1 -1 0 1 2 2 2 3 4 4 4 4 4
-2 -2 -2 -2 -2 -1 -1 -0 -0 -0 -0 0 0 -0 -0 0 -0 -0 -0 -1 -1 -0 -0 -1 -1 -2 -2 -1 -1 -2 -1 -1 -0 1 1 2 3 3 3 4 4 5 5
-3 -2 -2 -2 -2 -2 -1 -1 -1 -0 -0 -1 -1 -1 -1 -1 -1 -1 -1 -1 -1 -1 -1 -1 -2 -2 -2 -2 -2 -2 -2 -2 -1 -0 0 1 2 2 3 3 4 5 5
-3 -3 -2 -2 -2 -2 -2 -2 -2 -1 -1 -2 -2 -2 -2 -1 -1 -1 -2 -2 -2 -2 -2 -2 -2 -2 -3 -3 -3 -3 -3 -3 -2 -3 -2 -0 1 1 2 2 4 4 5
-3 -3 -3 -2 -2 -2 -2 -2 -2 -2 -2 -1 -1 -1 -1 -1 -2 -2 -2 -2 -2 -2 -2 -3 -3 -3 -3 -3 -3 -3 -3 -3 -3 -3 -3 -2 -1 0 1 2 3 4 5

GFSGL_850_temp_042.txt.gz
Temp
4 3 3 3 3 3 3 3 3 3 3 3 3 3 4 4 4 5 5 5 5 6 6 6 5 5 6 6 7 5 5 6 6 7 9 10 8 10 11 11 10 10 10
3 2 2 2 2 2 2 2 3 3 3 3 3 3 4 4 4 4 4 5 5 5 5 5 5 5 5 5 6 6 5 5 6 6 7 9 8 9 10 11 10 9 9
1 1 1 1 0 1 1 1 1 2 2 2 2 3 3 3 4 4 4 4 4 5 5 5 5 5 5 5 6 6 5 5 4 5 7 7 7 7 8 10 9 9 8
0 0 -0 -0 -0 -0 -0 -0 0 1 1 2 2 2 2 2 3 3 3 3 4 4 4 4 4 4 4 5 5 5 5 4 3 4 5 6 6 6 6 8 9 8 7
-0 -0 0 -0 -0 -1 -1 -1 -1 -0 0 0 1 1 1 1 1 1 1 3 3 4 4 4 4 4 3 3 4 5 5 4 3 3 4 4 5 5 5 6 8 8 7
-1 -1 -1 -1 -2 -2 -2 -2 -2 -1 -1 -1 -1 -1 0 1 1 1 1 2 3 3 3 3 3 3 2 2 2 3 3 3 3 3 4 4 5 5 5 6 7 6 6
-2 -2 -2 -2 -2 -2 -2 -3 -2 -2 -2 -1 -1 -1 -1 -1 0 0 1 1 2 3 3 3 3 3 3 3 3 3 3 3 3 3 3 5 4 6 5 5 6 6 6
-2 -2 -2 -2 -3 -2 -2 -2 -3 -2 -3 -2 -1 -1 -1 -1 -0 -0 0 1 1 2 3 3 3 2 3 2 1 2 2 3 3 4 5 5 3 5 5 6 7 7 5
-3 -2 -3 -3 -2 -2 -2 -2 -2 -2 -3 -3 -2 -2 -1 -1 -0 -1 -0 0 1 2 2 2 1 2 2 2 1 1 1 2 3 3 4 4 4 5 4 5 5 5 5
-2 -3 -3 -3 -2 -2 -2 -2 -3 -3 -3 -3 -2 -2 -2 -1 -1 -1 -1 -0 1 1 1 1 1 1 1 1 1 1 1 3 3 3 4 4 3 4 3 4 5 5 5
-3 -3 -3 -2 -2 -2 -2 -2 -3 -3 -3 -3 -3 -2 -2 -2 -1 -1 -1 -1 0 0 1 1 1 0 0 1 1 1 2 2 2 3 3 3 3 4 3 3 4 4 4
-3 -3 -3 -2 -2 -2 -2 -3 -3 -3 -3 -3 -3 -2 -2 -2 -1 -1 -1 -1 -1 -1 -0 0 0 0 0 1 1 2 2 2 3 3 3 3 2 2 2 3 4 5 5
-3 -3 -3 -2 -2 -2 -2 -2 -3 -3 -3 -2 -2 -2 -2 -1 -1 -1 -1 -1 -1 -0 -0 0 0 1 1 2 2 2 2 2 3 2 2 2 2 3 3 3 3 5 5
-4 -3 -3 -3 -2 -2 -2 -2 -2 -2 -3 -2 -2 -2 -2 -2 -2 -2 -1 -0 -0 -0 0 0 1 1 2 2 2 2 2 3 3 2 2 2 2 3 3 2 4 4 4
-3 -3 -3 -2 -2 -2 -2 -2 -2 -2 -2 -2 -2 -2 -2 -2 -1 -1 -1 -1 -0 0 -0 0 0 0 2 1 2 3 3 2 2 1 2 2 2 3 3 2 4 4 3
-3 -3 -3 -3 -2 -2 -2 -2 -1 -1 -2 -2 -2 -2 -2 -1 -1 -1 -0 -0 0 0 -0 1 1 1 0 2 2 2 2 1 1 1 2 2 2 2 2 4 4 4 4
-3 -3 -3 -2 -2 -2 -1 -1 -1 -1 -2 -1 -1 -0 -0 1 1 1 1 1 1 1 0 1 0 1 1 0 -0 0 0 0 2 1 1 1 2 3 3 4 4 4 3
-3 -3 -3 -2 -2 -1 -1 -1 -1 -1 -1 1 1 1 1 0 0 0 0 0 -0 -0 -0 -0 0 -0 -0 -0 -0 -0 0 0 -1 0 2 3 3 3 4 4 4 4 3
-3 -3 -3 -2 -2 -1 -0 -0 -0 -0 -0 0 0 -0 -0 -0 -0 -0 -0 -0 -0 -0 -0 -0 -0 -0 -0 -1 -1 -2 -2 -0 1 1 2 3 3 3 4 4 4 4 4
-3 -2 -2 -2 -2 -1 -0 -0 -0 -0 -0 -0 -0 -0 -0 -0 -0 -0 -0 -0 -0 0 -0 -1 -2 -2 -2 -2 -1 -1 -0 0 1 1 2 2 3 4 4 4 4 3 4
-3 -2 -2 -2 -2 -1 -1 -1 -0 -0 -0 -1 -1 -1 -1 -0 -0 -0 -0 -1 -1 -2 -2 -2 -2 -2 -2 -2 -1 -0 -0 0 1 1 2 2 3 4 4 4 4 4 3
-3 -2 -2 -2 -2 -1 -1 -1 -0 -0 -1 -1 -1 -1 -1 -0 -0 -0 -1 -1 -2 -2 -2 -2 -3 -3 -3 -2 -2 -1 -1 0 0 1 1 2 3 4 4 4 4 4 3
-3 -2 -2 -2 -2 -1 -1 -1 -1 -1 -1 -1 -1 -1 -1 -1 -1 -2 -2 -2 -2 -2 -2 -2 -2 -3 -3 -3 -2 -1 -0 0 0 1 2 3 4 4 4 4 4 4 3
-3 -3 -2 -2 -2 -2 -1 -1 -1 -1 -1 -1 -1 -1 -1 -1 -2 -2 -2 -2 -2 -2 -2 -2 -3 -3 -4 -3 -2 -2 -1 -0 0 1 2 3 4 4 4 4 4 4 3
-3 -3 -3 -2 -2 -2 -2 -1 -2 -2 -2 -1 -1 -2 -2 -2 -2 -2 -2 -2 -2 -2 -3 -3 -3 -4 -4 -4 -4 -4 -2 -0 0 1 2 3 4 4 4 4 4 4 4
-4 -4 -3 -2 -2 -2 -2 -2 -2 -2 -2 -2 -2 -2 -2 -2 -2 -2 -2 -2 -3 -3 -3 -3 -3 -4 -3 -4 -4 -4 -4 -2 0 1 2 3 3 4 4 4 4 4 4

GFSGL_850_temp_045.txt.gz
Temp
6 5 4 4 4 4 3 3 3 3 3 4 4 4 4 4 4 4 5 5 6 6 6 6 7 7 7 7 7 7 7 6 6 7 8 10 10 10 10 9 9 11 12
5 4 3 3 3 2 2 2 2 2 2 2 3 3 3 4 4 4 4 5 5 6 6 6 6 6 6 6 6 6 7 6 6 5 7 7 9 9 9 9 10 10 10
4 3 3 2 2 2 2 2 1 1 1 1 1 1 2 2 3 3 4 4 5 5 5 6 6 6 6 6 6 6 6 7 6 6 5 6 7 8 8 8 9 9 8
3 2 2 2 2 1 1 0 -0 -1 -1 -1 -0 0 1 1 2 2 3 2 3 4 4 5 5 6 6 6 6 6 6 6 6 5 5 4 5 7 7 7 7 8 7
2 2 1 1 0 -0 -1 -1 -1 -1 -1 -2 -1 -1 -0 0 1 1 2 2 1 2 4 4 5 5 5 5 5 5 5 5 6 5 4 3 4 6 6 6 7 7 7
0 0 -0 -1 -2 -2 -2 -2 -2 -2 -2 -2 -2 -1 -1 -1 -0 0 0 1 1 1 3 3 4 5 4 4 4 3 3 4 5 5 4 3 3 5 5 5 7 6 6
-0 -1 -2 -2 -2 -2 -2 -2 -2 -2 -2 -2 -2 -2 -2 -1 -1 -0 -0 -0 0 1 1 1 2 4 4 4 4 3 3 3 3 4 3 3 3 4 5 5 6 6 6
-2 -2 -2 -2 -2 -2 -2 -2 -2 -2 -2 -2 -2 -2 -2 -2 -1 -1 -1 -0 0 1 1 1 3 3 4 4 4 3 3 3 3 3 3 4 4 3 4 5 5 6 6
-2 -2 -2 -2 -3 -3 -3 -2 -2 -2 -2 -2 -2 -3 -2 -2 -1 -1 -1 -1 -0 -0 0 1 1 3 3 3 3 3 3 2 2 3 3 3 4 4 4 4 4 5 4
-3 -2 -3 -3 -3 -3 -2 -2 -2 -2 -2 -3 -2 -3 -2 -2 -2 -1 -1 -1 -1 -0 -0 0 1 2 2 2 2 2 2 2 2 2 3 3 4 3 3 4 4 4 4
-3 -3 -3 -3 -3 -3 -3 -2 -2 -2 -2 -2 -3 -2 -2 -2 -2 -1 -1 -1 -1 -0 -0 0 1 2 2 2 1 1 1 1 2 2 3 3 3 3 4 4 3 3 4
-3 -3 -3 -3 -3 -3 -2 -2 -2 -2 -2 -2 -2 -2 -2 -2 -1 -1 -1 -1 -0 -1 -0 0 1 1 1 1 1 1 1 1 2 2 3 3 3 4 3 4 3 3 4
-3 -3 -3 -3 -3 -3 -2 -2 -2 -2 -2 -2 -2 -2 -2 -2 -2 -2 -1 -1 -0 -0 -0 -0 -0 0 1 1 1 1 1 2 2 2 2 2 3 3 3 3 2 3 3
-3 -3 -3 -3 -3 -2 -2 -2 -2 -2 -2 -2 -2 -2 -2 -2 -2 -2 -1 -1 -1 -1 -1 -0 -0 0 0 1 1 2 2 2 2 2 2 3 3 3 2 2 2 2 2
-3 -3 -3 -3 -3 -2 -2 -2 -2 -1 -1 -2 -2 -1 -2 -2 -2 -2 -2 -1 -1 -1 -0 -0 0 0 0 1 1 2 2 2 2 2 2 2 2 2 2 2 1 2 2
-3 -3 -3 -3 -3 -2 -2 -1 -1 -1 -1 -1 -1 -1 -1 -1 -0 -0 -1 -1 -1 -1 -1 -0 0 0 -0 0 1 1 2 2 2 2 2 2 1 1 1 2 2 2 3
-3 -3 -3 -3 -3 -2 -1 -0 -1 0 1 1 0 -0 0 -0 1 1 1 1 0 -0 -0 0 0 0 0 1 1 1 2 2 2 2 1 1 1 1 2 3 3 3 4
-3 -3 -3 -3 -2 -1 -0 -0 -0 -0 -0 -0 -0 -0 -0 -0 -0 -0 0 1 -0 -0 -1 -1 -1 -1 -1 -1 -0 -0 -0 -0 -0 -0 0 1 1 2 2 2 2 3 4
-3 -2 -3 -3 -2 -1 -1 -0 -0 -0 -0 -0 -0 -0 -0 -0 -0 -1 -1 -1 -1 -1 -1 -1 -1 -1 -1 -1 -1 -0 -0 -0 -0 0 1 1 1 2 2 3 3 4 4
-3 -2 -2 -2 -2 -1 -1 -1 -1 -1 -1 -0 -0 -0 -1 0 -0 -1 -1 -1 -1 -1 -1 -2 -2 -2 -1 -1 -1 -1 -1 -1 -0 0 1 2 2 3 3 4 4 4 4
-3 -2 -2 -2 -2 -1 -1 -1 -1 -1 -1 -1 -1 -1 0 -0 -1 -2 -2 -2 -2 -2 -2 -2 -2 -2 -2 -2 -2 -1 -0 0 0 1 1 2 2 3 4 4 4 4 4
-3 -3 -2 -2 -2 -2 -1 -1 -1 -1 -1 -1 -1 -1 -1 -1 -2 -2 -2 -2 -2 -2 -3 -3 -3 -3 -3 -2 -2 -1 -1 -1 -1 -0 0 2 3 4 4 4 4 4 4
-3 -3 -2 -2 -2 -2 -1 -1 -1 -1 -1 -1 -1 -1 -2 -2 -2 -2 -2 -2 -2 -2 -3 -3 -3 -3 -3 -3 -2 -1 -0 -0 -0 0 1 2 4 4 4 4 4 4 4
-3 -3 -3 -2 -2 -2 -2 -2 -2 -2 -2 -2 -2 -2 -2 -2 -2 -2 -2 -3 -2 -3 -3 -4 -4 -4 -4 -4 -3 -2 -0 -0 0 1 2 3 4 4 4 4 4 4 4
-4 -3 -3 -3 -2 -2 -2 -2 -2 -2 -2 -2 -2 -2 -2 -2 -2 -2 -3 -3 -3 -3 -4 -4 -3 -4 -4 -4 -3 -2 -1 -0 0 2 3 4 4 4 4 4 4 4 3
-4 -4 -4 -3 -3 -3 -2 -3 -2 -2 -2 -2 -2 -2 -2 -3 -3 -3 -3 -3 -3 -4 -4 -5 -5 -5 -5 -4 -4 -2 -1 -0 1 2 3 4 4 4 4 4 4 4 4

GFSGL_850_temp_048.txt.gz
Temp
7 6 5 4 4 3 3 2 2 2 2 2 2 2 2 2 2 3 3 4 4 4 4 5 5 5 6 6 6 7 7 7 7 7 7 7 7 7 7 8 10 10 10
6 5 4 3 3 2 2 2 2 2 1 1 1 1 1 1 1 1 2 2 3 4 4 5 5 5 6 6 6 7 7 7 6 6 7 6 7 7 7 7 9 9 9
4 3 3 2 2 1 1 1 0 -0 -0 -0 -1 -0 -1 -0 -0 0 1 2 2 3 4 4 4 4 6 6 6 4 6 6 7 6 6 6 6 6 7 7 8 9 9
3 2 2 1 1 0 -0 -1 -1 -1 -1 -1 -1 -2 -2 -2 -1 -1 -0 0 1 2 2 3 3 4 4 5 5 5 5 5 6 7 6 6 6 6 6 6 7 8 8
2 1 1 -0 -0 -1 -2 -2 -1 -2 -2 -2 -2 -2 -2 -2 -2 -2 -1 -0 -1 -0 0 2 2 3 4 4 5 5 6 3 5 6 6 6 6 6 5 6 7 8 8
1 0 -0 -1 -2 -2 -2 -2 -2 -2 -2 -2 -2 -2 -2 -2 -1 -2 -1 -1 -1 -1 -1 1 2 2 3 3 4 4 4 4 5 5 5 5 5 5 4 5 6 7 7
-0 -1 -1 -2 -2 -2 -2 -2 -2 -2 -2 -2 -2 -3 -2 -2 -2 -2 -1 -1 -1 -0 -0 0 1 1 2 2 1 3 3 4 4 5 5 4 5 5 4 3 5 6 6
-1 -1 -2 -2 -2 -3 -3 -3 -3 -3 -3 -3 -2 -2 -2 -3 -2 -2 -1 -1 -1 -1 -1 -0 -0 1 2 3 2 2 4 3 4 4 4 3 3 4 4 4 4 5 6
-1 -2 -2 -3 -3 -3 -3 -3 -3 -3 -3 -3 -3 -2 -2 -3 -2 -2 -2 -1 -1 -1 -1 -1 -1 -0 0 0 1 2 2 3 3 3 3 3 3 3 4 4 4 4 5
-2 -2 -3 -3 -3 -3 -3 -3 -3 -3 -2 -2 -2 -2 -2 -2 -2 -2 -1 -1 -1 -1 -1 -0 -0 -0 0 0 1 2 2 3 3 2 2 3 3 3 3 3 4 4 4
-3 -3 -3 -3 -3 -3 -3 -3 -3 -2 -2 -2 -2 -2 -2 -2 -2 -2 -1 -1 -1 -1 -1 -1 -0 0 0 1 1 2 2 2 2 1 2 2 2 3 3 3 4 4 3
-3 -3 -3 -3 -3 -3 -3 -3 -2 -2 -2 -2 -2 -2 -1 -2 -2 -2 -1 -1 -1 -1 -1 -0 -0 0 0 1 1 2 2 2 1 1 1 2 2 3 3 3 3 3 3
-3 -3 -3 -3 -3 -3 -3 -2 -2 -2 -2 -2 -2 -2 -2 -1 -1 -1 -1 -1 -1 -1 -1 -1 -0 -0 0 0 1 1 1 1 1 1 1 2 2 3 3 3 3 3 3
-3 -3 -3 -3 -3 -3 -2 -2 -1 -1 -1 -1 -1 -1 -1 -1 -1 -1 -2 -1 -1 -1 -1 -1 -0 -0 -0 1 1 1 1 1 2 1 2 2 3 3 3 3 3 3 3
-3 -3 -3 -3 -3 -3 -2 -1 -1 -1 -0 1 0 -1 -1 -1 -1 -1 -1 -1 -1 -1 -1 -0 -0 -0 -0 0 0 0 1 2 1 2 2 2 2 3 3 3 3 2 2
-4 -3 -3 -3 -3 -2 -1 -0 0 -0 0 0 0 0 -0 -0 -0 1 2 -1 -1 -1 -1 -1 -0 -0 -0 0 1 1 1 1 1 2 2 2 2 2 2 2 2 2 2
-4 -3 -3 -3 -3 -2 -1 -1 -1 -0 -0 -0 -0 -0 -0 -1 -0 1 1 -0 -0 -1 -1 -0 -0 -0 0 -0 0 1 0 0 1 2 2 1 2 2 2 2 2 2 2
-4 -3 -3 -3 -2 -2 -1 -1 -1 -1 -1 -1 -0 -1 -1 -1 -1 -1 0 0 -0 -1 -1 -1 -1 -1 -0 0 0 0 0 0 1 2 2 1 2 2 1 1 1 1 1
-4 -3 -3 -3 -2 -1 -1 -1 -1 -1 -1 -1 -1 -1 -1 -1 -1 -1 -1 -2 -2 -2 -2 -2 -1 -1 -1 -1 -0 -0 0 1 1 1 1 1 1 1 1 1 1 2 2
-4 -3 -2 -2 -2 -1 -1 -1 -1 -1 -1 -2 -2 -2 -2 -2 -2 -2 -2 -2 -2 -2 -2 -2 -2 -2 -2 -1 -1 -1 -0 -1 -0 -0 -0 0 0 0 1 1 1 1 2
-3 -3 -3 -2 -2 -2 -1 -1 -1 -1 -2 -2 -2 -2 -2 -2 -2 -3 -3 -3 -3 -3 -3 -2 -2 -2 -2 -1 -1 -0 -0 0 0 1 1 0 0 0 0 1 1 3 4
-4 -3 -3 -2 -2 -2 -2 -2 -2 -2 -2 -2 -2 -2 -2 -2 -2 -3 -3 -3 -3 -3 -3 -3 -3 -3 -2 -1 -1 -1 -1 -0 0 1 1 1 2 2 2 3 4 4 4
-4 -4 -3 -3 -2 -2 -2 -2 -2 -2 -2 -2 -2 -2 -2 -3 -3 -3 -3 -3 -3 -4 -4 -4 -4 -3 -3 -2 -1 -1 -1 -1 -0 -0 1 2 3 3 4 4 4 4 4
-4 -4 -4 -3 -3 -3 -2 -2 -2 -2 -2 -2 -2 -3 -3 -3 -3 -3 -3 -4 -4 -4 -5 -5 -4 -4 -3 -2 -2 -1 -1 -1 0 1 2 3 4 4 4 4 4 4 4
-4 -4 -4 -4 -3 -3 -3 -2 -2 -3 -3 -3 -3 -3 -3 -3 -3 -3 -4 -5 -5 -5 -5 -5 -5 -4 -3 -2 -1 -1 -1 0 1 2 3 4 4 4 4 4 4 4 4
-5 -5 -4 -4 -4 -3 -3 -3 -3 -3 -3 -3 -3 -3 -3 -3 -3 -4 -4 -5 -5 -5 -5 -5 -4 -4 -3 -2 -1 -1 -0 1 2 3 3 3 4 4 4 4 4 4 4

GFSGL_850_temp_054.txt.gz
Temp
8 7 6 6 6 5 4 3 2 1 0 -0 -0 -0 -1 -1 -1 -1 -1 -1 -1 -1 -1 -1 -0 1 1 2 2 3 4 4 4 5 5 5 6 6 7 7 7 8 8
7 7 6 5 4 3 2 1 -0 -0 -0 -1 -1 -2 -2 -2 -2 -2 -2 -2 -2 -2 -2 -2 -1 -1 0 1 1 2 3 4 4 4 5 5 5 6 6 6 6 7 8
7 5 5 3 2 1 1 -0 -0 -1 -1 -2 -2 -2 -2 -2 -2 -2 -2 -2 -2 -2 -2 -2 -2 -2 -1 0 1 -0 2 4 4 4 4 5 5 5 6 6 6 6 7
5 4 3 2 1 1 -0 -1 -1 -2 -3 -3 -3 -3 -3 -2 -2 -2 -2 -2 -2 -2 -2 -2 -2 -2 -1 -0 -0 -0 0 2 3 4 4 4 5 5 6 6 5 6 6
4 3 2 1 1 -0 -1 -1 -2 -3 -3 -3 -3 -3 -2 -3 -3 -2 -2 -2 -2 -1 -1 -1 -2 -2 -1 -1 -1 0 1 1 2 4 4 4 2 5 6 6 5 5 5
1 1 1 -0 -1 -1 -2 -3 -3 -3 -3 -2 -3 -2 -3 -2 -3 -2 -2 -2 -2 -2 -1 -1 -2 -2 -1 -1 -0 0 -0 0 2 2 3 3 3 4 5 6 6 5 5
1 0 -1 -1 -1 -2 -3 -3 -3 -3 -3 -3 -3 -2 -2 -2 -2 -2 -2 -1 -1 -2 -2 -1 -2 -2 -2 -1 -1 -1 -0 1 1 2 3 4 4 5 5 5 5 5 5
-0 -1 -1 -1 -3 -3 -4 -3 -3 -3 -3 -3 -3 -2 -2 -2 -2 -2 -2 -1 -1 -2 -2 -2 -2 -2 -1 -1 -1 -1 -0 0 0 1 2 3 3 4 4 5 5 5 5
-1 -1 -2 -3 -3 -3 -3 -3 -3 -3 -3 -2 -2 -2 -1 -1 -2 -2 -2 -2 -1 -2 -1 -2 -2 -1 -1 -1 -1 -1 -1 -0 0 0 2 3 3 3 4 4 4 4 4
-1 -2 -2 -3 -3 -3 -3 -3 -3 -3 -2 -2 -1 -0 -0 -0 -1 -1 -1 -1 -2 -2 -2 -2 -1 -2 -1 -1 -0 -0 -0 0 1 1 2 2 3 4 3 3 4 4 4
-2 -2 -3 -3 -3 -3 -3 -3 -3 -2 -1 -1 -1 0 0 -0 -0 -0 -1 -1 -1 -2 -1 -1 -1 -1 -1 -0 -0 -0 0 0 1 1 2 1 3 3 2 3 4 4 4
-2 -2 -3 -3 -4 -3 -3 -3 -2 -1 -1 -1 -0 0 -0 -0 -1 -0 -1 -1 -1 -1 -1 -1 -1 -1 -0 -1 0 0 0 0 0 1 2 2 2 2 2 2 3 3 3
-2 -3 -3 -3 -4 -3 -3 -2 -1 -1 -1 -0 -0 -0 -0 -1 -1 -1 -0 -0 -1 -1 -1 -0 -0 -0 -0 -0 0 0 0 0 1 2 2 2 2 2 2 2 3 3 3
-3 -4 -4 -4 -3 -3 -2 -1 -1 -1 -1 -1 -1 -1 -1 -1 -1 -0 -0 0 -1 -1 -1 -0 0 -0 -0 -0 -0 1 1 1 1 1 2 2 1 1 1 1 1 2 3
-4 -4 -4 -3 -3 -3 -2 -1 -1 -1 -1 -1 -1 -1 -1 -1 -1 -0 1 1 -0 -1 -1 -1 -1 -1 -1 -0 -0 -1 -0 0 0 1 1 1 1 1 1 1 1 2 3
-4 -4 -4 -4 -3 -3 -2 -1 -1 -1 -1 -2 -1 -1 -2 -2 -1 -1 0 0 -1 -1 -1 -1 -1 -1 -1 -0 -0 0 0 1 1 1 1 1 1 1 1 2 2 2 3
-4 -4 -4 -4 -3 -3 -2 -2 -2 -2 -2 -2 -2 -2 -2 -2 -2 -1 -1 -2 -1 -1 -1 -1 -1 -1 -0 -0 -0 -0 -0 -0 0 1 1 1 1 1 2 2 2 2 2
-4 -3 -4 -4 -3 -3 -2 -2 -3 -2 -2 -2 -2 -2 -2 -2 -2 -2 -1 -1 -1 -1 -1 -1 -1 -1 -1 -0 0 -1 -0 0 0 1 1 1 1 1 1 2 2 3 3
-4 -3 -4 -3 -3 -3 -3 -3 -3 -3 -2 -3 -2 -2 -3 -3 -3 -3 -3 -3 -3 -3 -2 -2 -2 -1 -1 -1 -1 -1 -1 0 1 0 1 1 1 1 1 2 2 2 2
-4 -3 -4 -3 -3 -3 -3 -3 -3 -3 -3 -3 -3 -3 -3 -3 -4 -4 -4 -4 -3 -3 -3 -3 -2 -2 -2 -1 -1 -1 -0 -0 -0 0 1 1 1 1 1 1 2 1 2
-4 -3 -4 -3 -3 -3 -3 -3 -3 -3 -3 -3 -3 -3 -3 -4 -4 -4 -4 -4 -4 -4 -4 -3 -3 -3 -2 -2 -1 -1 -0 -0 0 -0 -0 1 1 1 1 1 1 1 2
-4 -4 -4 -4 -4 -3 -3 -3 -3 -3 -3 -3 -3 -3 -4 -4 -5 -5 -5 -5 -5 -4 -4 -4 -3 -3 -3 -2 -2 -1 -1 -1 -0 0 0 0 1 1 1 1 1 2 1
-4 -4 -4 -4 -4 -3 -3 -3 -3 -3 -3 -3 -4 -4 -4 -5 -5 -5 -5 -5 -5 -5 -4 -4 -3 -3 -3 -2 -2 -2 -2 -1 -0 0 0 0 1 1 1 1 1 1 1
-4 -5 -4 -4 -4 -3 -3 -3 -3 -3 -3 -4 -4 -4 -5 -5 -5 -6 -6 -6 -5 -5 -4 -4 -3 -3 -3 -3 -2 -2 -2 -0 -1 -1 -1 -0 -0 -0 -0 0 0 0 1
-5 -5 -4 -4 -4 -4 -3 -3 -4 -4 -4 -4 -4 -5 -5 -5 -5 -6 -6 -6 -5 -5 -4 -4 -3 -3 -3 -3 -2 -1 -0 0 0 0 0 1 0 0 1 1 1 1 2
-5 -5 -5 -4 -4 -4 -4 -4 -4 -4 -4 -4 -4 -4 -5 -5 -5 -5 -5 -6 -5 -5 -5 -4 -3 -3 -3 -2 -0 1 1 1 1 0 1 1 1 2 2 2 3 3 3

GFSGL_850_temp_057.txt.gz
Temp
8 8 7 6 6 5 4 3 3 3 2 2 1 0 -1 -1 -2 -2 -2 -2 -2 -2 -2 -1 -1 -1 -1 -1 -1 -0 1 2 2 3 3 3 4 5 5 6 6 6 7
7 7 6 6 5 4 3 3 2 2 1 0 -1 -1 -2 -3 -2 -3 -3 -3 -3 -3 -2 -2 -2 -2 -2 -2 -1 -1 -0 1 1 1 2 3 3 5 5 5 6 6 6
7 6 6 5 4 3 2 2 1 1 0 -1 -2 -2 -3 -3 -3 -3 -3 -2 -3 -3 -2 -2 -3 -2 -2 -2 -2 -1 -1 -0 1 1 1 2 3 4 4 5 5 5 6
6 5 4 3 3 2 1 1 1 -0 -2 -2 -2 -3 -2 -3 -3 -3 -3 -2 -2 -2 -2 -2 -2 -2 -2 -2 -2 -1 -1 -1 0 1 0 1 3 4 4 5 5 5 6
4 4 3 2 2 1 1 0 -0 -2 -3 -3 -2 -2 -2 -3 -2 -2 -2 -2 -2 -2 -2 -2 -2 -2 -2 -2 -1 -1 -1 -1 -1 0 -0 1 2 3 4 4 5 5 5
3 2 2 1 1 0 -0 -1 -3 -3 -3 -3 -2 -2 -2 -2 -2 -2 -2 -2 -2 -2 -2 -2 -2 -2 -2 -1 -1 -1 0 -1 -1 -0 -0 0 2 3 4 4 4 5 4
2 1 1 0 0 -1 -1 -2 -3 -3 -3 -3 -2 -2 -2 -1 -1 -1 -2 -2 -1 -1 -1 -2 -1 -1 -2 -1 -1 -2 -1 -0 0 -1 -0 1 1 3 3 3 3 5 5
1 1 0 -0 -1 -2 -3 -3 -3 -3 -3 -3 -2 -2 -2 -1 -0 -1 -0 -1 -1 -1 -2 -1 -2 -2 -2 -2 -1 -1 -0 -1 -1 -1 -0 1 2 3 3 3 4 5 5
1 0 -0 -1 -2 -2 -3 -3 -3 -3 -2 -2 -2 -1 -1 -0 -0 -0 -0 -0 -1 -1 -1 -1 -2 -2 -1 -1 -2 -1 -1 -1 -1 -0 0 0 1 3 3 3 4 4 4
-0 -1 -1 -2 -2 -3 -4 -3 -3 -3 -2 -2 -1 -1 -0 -0 -0 -0 -0 -0 -0 -1 -1 -1 -2 -1 -1 -1 -2 -1 -1 -1 -1 -0 -0 0 1 2 2 3 4 4 4
-1 -1 -1 -2 -3 -4 -3 -3 -2 -2 -2 -1 -1 -1 -1 -1 -1 -1 -1 -0 -0 -1 -1 -1 -1 -1 -1 -1 -1 -1 -0 -1 -0 -0 0 1 2 2 3 3 4 4 4
-1 -1 -2 -3 -4 -3 -3 -3 -2 -1 -2 -1 -1 -1 -1 -1 -1 -1 -1 -1 -0 -0 -1 -1 -0 -1 -1 -1 -1 -0 0 -0 -0 -0 1 2 1 2 2 3 3 3 3
-2 -2 -3 -4 -3 -3 -3 -2 -2 -2 -2 -1 -1 -2 -1 -2 -2 -1 0 1 1 -0 -1 -0 -1 -1 -1 -0 -0 -0 0 0 0 0 0 1 2 2 2 2 2 2 3
-2 -3 -4 -4 -4 -3 -3 -2 -2 -2 -2 -1 -2 -1 -2 -2 -2 -1 0 0 0 -0 -1 -0 -0 -0 -0 -1 -0 1 1 -0 0 0 1 2 2 2 2 2 2 2 2
-3 -3 -4 -4 -3 -3 -3 -2 -3 -3 -2 -2 -2 -2 -2 -2 -2 -1 -1 -1 -1 -1 -1 -1 -1 -1 -1 -1 -1 -1 0 0 -0 0 1 2 2 2 1 1 1 2 2
-3 -4 -4 -4 -4 -4 -3 -3 -3 -2 -2 -2 -2 -2 -2 -2 -2 -2 -1 -1 -1 -1 -1 -1 -1 -1 -1 -1 -1 -1 -1 -0 0 1 1 1 1 1 1 1 1 1 2
-4 -4 -4 -3 -4 -4 -4 -4 -3 -2 -2 -2 -2 -2 -3 -3 -3 -3 -2 -2 -2 -1 -2 -2 -1 -1 -1 -1 -0 -0 -0 -0 0 1 1 1 1 1 1 1 1 1 2
-4 -4 -4 -4 -4 -4 -4 -4 -3 -3 -3 -3 -3 -3 -3 -3 -3 -3 -3 -3 -2 -2 -2 -2 -2 -1 -1 -0 -0 -0 -0 -0 0 0 1 1 1 1 1 1 1 2 2
-4 -4 -5 -4 -4 -4 -4 -4 -3 -3 -3 -3 -3 -3 -4 -4 -4 -4 -4 -4 -4 -3 -3 -3 -2 -2 -1 -1 -1 -0 -1 -1 0 0 1 1 1 1 1 1 1 2 2
-4 -4 -4 -4 -4 -4 -4 -3 -3 -3 -3 -3 -3 -3 -4 -4 -5 -5 -5 -5 -4 -4 -4 -3 -3 -3 -2 -2 -1 -1 -1 -1 -1 0 0 0 0 1 1 1 1 2 2
-4 -4 -4 -4 -4 -4 -4 -4 -3 -4 -4 -4 -4 -4 -5 -5 -5 -5 -5 -5 -5 -4 -4 -4 -3 -3 -3 -2 -2 -1 -1 -1 -1 -1 -0 0 0 0 1 1 1 1 2
-4 -4 -4 -4 -4 -4 -4 -3 -3 -4 -4 -4 -4 -4 -5 -5 -6 -6 -6 -5 -5 -5 -4 -4 -4 -3 -3 -3 -2 -2 -1 -0 0 -0 0 -0 0 1 1 1 1 2 1
-4 -4 -4 -4 -4 -4 -3 -3 -3 -4 -4 -4 -4 -5 -5 -5 -6 -6 -6 -5 -5 -5 -4 -4 -4 -3 -3 -4 -3 -2 -1 -1 -0 -0 -0 -1 -0 1 1 1 1 1 1
-4 -5 -5 -4 -4 -4 -4 -4 -4 -4 -4 -4 -5 -5 -5 -5 -6 -6 -6 -6 -5 -5 -4 -4 -4 -4 -3 -3 -3 -2 -2 -1 -0 -0 0 0 0 1 1 1 1 1 1
-4 -5 -5 -5 -5 -4 -4 -4 -4 -4 -4 -4 -5 -5 -5 -5 -6 -6 -6 -6 -5 -5 -5 -4 -4 -3 -3 -2 -2 -1 -1 -0 -0 -0 -0 0 0 0 1 1 1 1 1
-5 -5 -5 -5 -5 -5 -4 -4 -4 -4 -4 -4 -5 -5 -5 -5 -6 -6 -6 -6 -5 -5 -5 -4 -4 -3 -1 -0 0 -0 0 1 0 -0 -0 0 -0 -0 0 0 0 1 1

GFSGL_850_temp_060.txt.gz
Temp
7 7 7 7 6 5 4 4 3 3 2 2 2 2 1 -0 -1 -2 -2 -2 -2 -3 -3 -3 -2 -2 -2 -2 -2 -2 -2 -1 -1 -0 0 1 2 2 3 4 5 5 6
7 7 6 6 5 4 4 3 3 3 2 2 1 0 -1 -2 -2 -2 -2 -2 -2 -3 -3 -3 -3 -3 -3 -3 -3 -3 -3 -2 -2 -1 -1 0 1 2 2 3 4 5 5
6 6 6 5 4 4 3 3 2 2 2 1 -0 -1 -2 -2 -2 -2 -3 -2 -2 -2 -2 -2 -2 -2 -3 -3 -3 -2 -3 -2 -2 -2 -1 -1 0 1 2 3 3 4 5
6 5 4 4 3 2 2 2 2 1 0 -1 -2 -3 -2 -2 -2 -2 -2 -2 -2 -3 -2 -2 -2 -2 -2 -2 -2 -2 -2 -2 -2 -2 -1 -1 -1 1 2 2 3 4 5
4 4 3 2 2 2 2 1 1 -0 -2 -2 -3 -3 -2 -2 -2 -2 -2 -2 -2 -2 -2 -2 -2 -2 -2 -2 -2 -2 -2 -2 -1 -1 -1 -1 -1 -0 1 2 2 3 4
3 2 2 2 1 1 1 1 -0 -1 -2 -2 -3 -2 -2 -1 -1 -2 -2 -1 -1 -1 -1 -1 -1 -2 -2 -1 -1 -1 -0 -1 -1 -1 -1 -2 -1 -1 0 1 2 3 4
2 2 1 1 1 0 -0 -0 -1 -2 -2 -2 -2 -2 -2 -1 -2 -2 -1 -1 -1 -0 -0 -0 -1 -1 -1 -1 -1 -1 -1 -1 -0 -0 -1 -1 -1 -0 0 1 1 3 4
1 1 1 1 0 -1 -1 -1 -2 -3 -2 -2 -2 -1 -1 -1 -1 -1 -0 -1 -1 -0 -0 -0 -1 -1 -2 -2 -1 -2 -1 -1 -1 -1 -1 -1 -1 -0 0 0 1 3 3
1 1 0 -0 -1 -1 -1 -3 -3 -3 -2 -2 -1 -1 -1 -1 -1 -1 -1 -1 -1 -0 -0 -0 -1 -1 -1 -1 -2 -2 -2 -2 -1 -1 -1 -0 1 0 0 0 1 1 2
0 -0 -0 -1 -2 -2 -4 -3 -3 -3 -2 -2 -1 -1 -1 -2 -1 -2 -1 -1 -1 -1 -0 -0 -1 -1 -1 -1 -2 -2 -2 -1 -1 -0 -0 -0 -0 1 0 1 1 0 3
-1 -1 -1 -2 -3 -4 -4 -4 -3 -2 -2 -2 -2 -2 -2 -2 -2 -2 -1 -1 0 1 0 -0 -1 -1 -1 -1 -1 -1 -1 -1 -1 -1 -1 -0 -0 1 1 1 1 1 3
-1 -1 -1 -2 -4 -4 -3 -4 -3 -3 -3 -3 -2 -2 -2 -2 -2 -1 -1 -0 0 1 1 0 -1 -1 -1 -1 -1 -1 -1 -1 -0 -1 -0 -1 -0 0 1 1 1 2 4
-1 -2 -2 -2 -4 -4 -4 -3 -3 -3 -3 -2 -2 -2 -2 -2 -3 -2 -1 -1 -0 0 0 -0 -0 -1 -1 -1 -1 -1 -0 -0 -0 -0 -0 -0 -0 1 2 1 1 2 3
-2 -2 -2 -4 -4 -4 -4 -4 -3 -3 -3 -2 -2 -2 -2 -2 -3 -2 -2 -1 -1 -1 -1 -1 -1 -1 -1 -1 -1 -1 -0 -0 -0 0 0 1 -0 1 1 1 2 2 3
-3 -3 -5 -4 -4 -4 -4 -4 -3 -3 -3 -2 -2 -2 -2 -3 -3 -3 -2 -1 -1 -1 -1 -1 -1 -1 -1 -1 -1 -0 -1 -0 -0 0 0 1 -0 1 1 0 0 2 3
-4 -4 -5 -4 -5 -4 -4 -3 -4 -3 -3 -3 -3 -2 -3 -3 -3 -3 -3 -2 -2 -2 -2 -2 -1 -1 -1 -1 -1 -1 -1 -1 -0 0 1 1 1 1 2 2 2 2 2
-4 -5 -5 -5 -4 -4 -4 -4 -3 -3 -3 -3 -3 -3 -3 -4 -4 -4 -4 -3 -3 -2 -2 -2 -2 -1 -1 -1 -1 -1 -1 -1 -0 -0 0 1 1 1 1 1 1 1 2
-5 -5 -4 -5 -4 -4 -4 -4 -3 -3 -3 -3 -3 -3 -4 -5 -5 -5 -4 -4 -4 -3 -3 -3 -3 -3 -2 -1 -1 -0 -0 0 0 0 1 1 1 1 0 -0 -0 1 1
-5 -4 -4 -5 -4 -4 -4 -4 -3 -4 -4 -4 -4 -4 -4 -5 -5 -5 -5 -5 -5 -4 -4 -4 -3 -3 -2 -2 -2 -1 -1 -1 -0 0 0 0 0 0 0 0 0 1 1
-4 -4 -4 -4 -4 -4 -4 -4 -4 -4 -4 -4 -4 -4 -4 -5 -5 -5 -6 -5 -5 -5 -4 -4 -4 -4 -3 -2 -2 -1 -0 -1 -1 -0 0 -0 -0 0 0 0 0 1 2
-5 -4 -4 -4 -4 -4 -4 -4 -4 -4 -4 -4 -4 -5 -5 -5 -6 -6 -6 -5 -5 -5 -5 -4 -4 -4 -3 -3 -2 -2 -1 -1 -2 -1 -1 -0 -0 -1 0 0 0 1 1
-5 -4 -4 -5 -4 -4 -4 -4 -4 -4 -4 -4 -5 -5 -5 -5 -6 -6 -6 -6 -5 -5 -5 -5 -4 -4 -4 -3 -2 -1 -1 -1 -1 -1 -1 -1 -0 -0 0 0 1 0 1
-4 -5 -5 -5 -5 -4 -4 -4 -4 -4 -4 -4 -5 -5 -5 -5 -6 -6 -6 -6 -6 -5 -5 -5 -5 -4 -4 -3 -3 -2 -1 -1 -1 -0 -0 0 0 0 0 0 1 1 1
-5 -5 -5 -5 -5 -5 -4 -4 -4 -4 -4 -4 -5 -5 -5 -5 -6 -6 -6 -6 -6 -5 -5 -5 -5 -4 -4 -3 -3 -2 -1 -1 -1 -1 -0 -0 -0 -1 0 1 1 1 2
-5 -5 -5 -6 -5 -5 -5 -5 -4 -5 -5 -5 -5 -5 -5 -5 -6 -6 -6 -6 -6 -5 -5 -4 -4 -4 -3 -3 -3 -2 -3 -0 -0 -1 -0 -0 -1 -1 -0 0 1 1 1
-5 -5 -5 -6 -6 -6 -5 -5 -5 -5 -5 -5 -5 -5 -6 -6 -6 -6 -7 -6 -6 -5 -4 -3 -3 -2 -1 -0 -0 -1 -1 0 0 -0 -0 -0 -0 0 1 1 1 1 1

GFSGL_850_temp_063.txt.gz
Temp
8 7 7 6 6 5 5 5 4 4 3 3 3 3 2 1 -1 -2 -2 -2 -2 -3 -3 -2 -2 -3 -3 -3 -3 -3 -2 -2 -2 -1 -1 -0 -0 0 1 2 3 3 4
7 6 6 6 5 5 4 4 3 3 3 2 2 1 0 -1 -1 -2 -2 -2 -3 -3 -3 -3 -3 -3 -3 -2 -3 -3 -3 -2 -2 -2 -1 -1 -1 -0 0 1 2 2 3
6 6 5 5 4 4 3 3 2 2 2 1 1 -0 -1 -1 -2 -1 -2 -2 -3 -3 -3 -3 -2 -2 -3 -3 -3 -3 -3 -3 -3 -3 -2 -2 -2 -1 -1 0 1 2 3
5 5 4 4 3 3 2 2 2 1 1 0 -0 -1 -1 -2 -2 -2 -2 -3 -3 -2 -2 -1 -1 -1 -2 -2 -3 -3 -3 -2 -2 -2 -2 -2 -2 -1 -1 -0 1 1 3
4 4 3 3 2 2 1 1 1 1 0 -0 -1 -1 -2 -2 -1 -2 -2 -2 -1 -1 -1 -1 -1 -1 -0 -2 -2 -2 -2 -2 -2 -2 -2 -2 -2 -1 -1 -0 0 0 1
3 3 2 2 1 1 1 1 1 -0 -1 -2 -2 -2 -1 -1 -1 -1 -1 -1 -1 -1 -0 -0 -0 -0 -0 -1 -1 -1 -1 -1 -1 -1 -1 -2 -2 -1 -1 -1 -0 1 1
2 2 1 1 0 0 0 0 -1 -2 -2 -2 -2 -1 -1 -1 -1 -1 -1 -1 -1 -1 -0 -0 -0 -1 -1 -1 -1 -1 -1 -0 -0 -0 -1 -1 -0 -1 -1 -1 -1 0 1
1 1 0 0 -0 -1 -1 -1 -3 -4 -3 -3 -3 -2 -1 -1 -1 -1 -1 -1 -1 -1 -1 -1 -0 -1 -1 -1 -1 -1 -1 -1 -0 -1 -1 -1 -0 0 -0 0 -0 0 1
1 0 -0 -1 -1 -1 -1 -3 -4 -3 -3 -3 -3 -2 -2 -2 -1 -1 -2 -1 -1 -0 -0 -0 0 -0 -0 -0 -1 -1 -1 -1 -1 -1 -2 -1 -0 -0 -0 -0 -0 1 0
-0 -1 -1 -1 -1 -2 -2 -4 -3 -3 -3 -3 -3 -2 -2 -2 -2 -1 -2 -1 -1 -0 -1 1 1 0 -0 -0 -1 -1 -1 -1 -2 -1 -1 -1 -0 -0 -0 -0 0 0 0
-1 -1 -1 -1 -2 -2 -4 -4 -4 -3 -3 -3 -2 -2 -2 -2 -2 -2 -2 -1 -1 -1 -0 1 1 -0 -0 -1 -1 -1 -1 -1 -1 -1 -1 -1 -1 -0 0 -0 0 1 1
-1 -1 -1 -2 -2 -4 -4 -4 -4 -4 -4 -3 -3 -2 -2 -2 -3 -2 -2 -2 -1 -0 -0 -1 -1 -1 -1 -1 -1 -1 -1 -1 -1 -1 -1 -1 -1 -1 -1 0 1 0 1
-2 -2 -2 -2 -4 -4 -4 -4 -4 -4 -4 -3 -3 -2 -2 -3 -3 -2 -2 -2 -1 -1 -1 -1 -1 -1 -1 -1 -1 -0 -0 -0 -0 -0 -1 -1 -0 -0 1 1 1 0 1
-2 -2 -2 -5 -5 -5 -4 -4 -4 -4 -3 -3 -3 -3 -2 -2 -3 -3 -3 -3 -2 -1 -1 -1 -1 -1 -0 -1 -1 -0 -0 -0 -0 -0 -0 -1 -1 -0 1 1 0 1 1
-3 -3 -4 -5 -5 -4 -4 -4 -4 -3 -3 -3 -3 -3 -3 -3 -3 -4 -3 -3 -3 -2 -2 -1 -1 -1 -1 -1 -1 -1 -1 -0 -0 -0 -0 -0 -0 0 1 1 1 1 3
-3 -3 -4 -5 -5 -4 -4 -4 -3 -3 -3 -3 -3 -3 -3 -4 -4 -4 -4 -4 -4 -3 -2 -2 -2 -2 -1 -1 -1 -1 -1 -1 -0 0 -1 0 0 0 1 1 1 1 3
-3 -4 -5 -5 -5 -4 -4 -4 -4 -3 -4 -4 -3 -3 -4 -4 -5 -5 -5 -5 -4 -4 -3 -3 -2 -2 -2 -2 -1 -1 -2 -1 -1 -1 -0 1 0 0 1 1 0 0 1
-3 -3 -5 -5 -5 -4 -4 -4 -4 -4 -4 -4 -4 -4 -4 -5 -5 -6 -5 -5 -4 -4 -4 -4 -3 -3 -3 -2 -2 -1 -2 -1 -0 -0 0 1 0 1 1 1 1 1 2
-4 -5 -5 -5 -5 -4 -4 -4 -4 -4 -4 -4 -4 -4 -4 -5 -5 -5 -6 -6 -6 -5 -5 -4 -4 -4 -3 -3 -3 -2 -1 -1 -1 -0 0 1 1 1 1 1 1 -0 -0
-4 -4 -4 -5 -4 -4 -4 -4 -4 -4 -4 -4 -5 -4 -5 -5 -5 -5 -6 -6 -6 -5 -5 -5 -4 -4 -3 -3 -2 -3 -1 -1 -0 -0 0 0 0 0 0 1 1 0 -0
-4 -4 -4 -4 -5 -5 -4 -4 -4 -4 -4 -5 -4 -4 -5 -5 -5 -6 -6 -6 -6 -6 -5 -5 -5 -4 -4 -3 -3 -2 -2 -1 -1 -1 -0 0 -0 -0 0 1 1 1 0
-4 -4 -5 -5 -5 -5 -5 -4 -4 -4 -5 -4 -4 -5 -5 -5 -6 -6 -6 -6 -6 -6 -6 -5 -5 -5 -4 -3 -3 -2 -2 -1 -1 -1 -2 -1 -0 -1 -0 0 1 1 1
-4 -5 -5 -5 -5 -5 -5 -5 -5 -5 -5 -5 -5 -5 -5 -5 -6 -6 -7 -6 -6 -5 -5 -5 -5 -5 -4 -4 -3 -2 -1 -1 -1 -2 -2 -1 -1 -1 -1 -0 0 1 1
-4 -5 -5 -5 -6 -6 -5 -5 -5 -5 -5 -5 -5 -5 -5 -6 -6 -7 -6 -6 -6 -5 -5 -5 -5 -5 -5 -4 -3 -2 -1 -1 -1 -2 -2 -1 -1 -1 -0 -0 0 1 1
-4 -5 -5 -5 -6 -6 -6 -6 -5 -5 -5 -5 -5 -6 -6 -6 -7 -6 -6 -6 -5 -5 -5 -4 -4 -4 -4 -4 -3 -1 -1 -1 -1 -1 -1 -1 -0 0 -0 -0 0 0 1
-5 -5 -5 -6 -6 -6 -6 -6 -6 -6 -6 -6 -6 -6 -7 -7 -7 -6 -6 -6 -5 -4 -3 -3 -2 -2 -1 -1 -1 -1 -1 0 -0 -1 -1 -1 -0 -0 -1 -1 0 0 1

GFSGL_850_temp_069.txt.gz
Temp
7 7 6 6 6 5 5 4 4 4 3 3 3 2 2 2 1 1 1 1 1 1 1 0 -0 -0 -1 -1 -1 -1 -2 -1 -2 -1 -1 -1 0 1 2 3 3 3 3
6 6 5 5 5 4 4 4 4 3 3 2 2 2 1 1 1 1 1 0 0 0 -0 -1 -1 -1 -1 -1 -1 -1 -2 -1 -1 -2 -1 -1 -1 -0 1 1 2 3 3
5 5 5 5 4 4 3 3 3 2 2 2 1 1 1 1 0 0 -0 -1 -1 -1 -1 -1 -1 -1 -1 -1 -1 -1 -1 -1 -1 -1 -1 -1 -1 -1 -1 -0 1 1 2
5 4 4 4 3 3 2 2 1 1 1 1 1 0 0 -0 -0 -1 -1 -1 -1 -1 -1 -1 -1 -1 -1 -1 -1 -1 -1 -1 -1 -1 -1 -1 -1 -1 -1 -1 -1 0 1
4 4 4 3 2 2 1 1 1 0 0 0 -0 -0 -0 -1 -2 -2 -2 -1 -1 -1 -1 -1 -1 -1 -0 -1 -1 -1 -1 -1 -1 -1 -1 -1 -1 -1 -1 -1 -1 0 1
4 4 3 2 2 1 1 0 0 -0 -0 -0 -0 -1 -2 -3 -2 -2 -2 -1 -1 -1 -1 -1 -0 -0 -0 -0 0 1 1 1 -1 -1 -1 -1 -1 -0 -0 -0 -0 0 1
3 3 2 2 1 1 0 -0 -0 -1 -1 -1 -1 -2 -3 -2 -2 -2 -2 -1 -1 -1 -1 -1 -0 0 -0 -0 -0 0 0 0 1 1 -0 -0 -1 -0 0 -0 -1 0 1
2 2 2 1 0 -0 -0 -1 -1 -1 -1 -2 -3 -3 -3 -3 -3 -2 -2 -1 -1 -1 -1 -1 -1 -1 -0 -1 -0 0 0 0 -0 0 0 -0 -1 -0 -1 0 -0 -0 0
2 2 1 0 -0 -1 -1 -1 -2 -2 -3 -4 -3 -3 -3 -3 -2 -2 -2 -1 -1 -1 -1 -1 -1 -1 -0 -1 0 1 1 1 0 0 0 0 -0 -0 -1 -1 -1 -0 -0
2 0 -0 -1 -1 -1 -1 -2 -2 -3 -4 -4 -4 -3 -3 -3 -2 -2 -2 -2 -1 -1 -2 -2 -1 -1 -1 -0 0 1 2 1 0 -0 0 -0 -1 -0 -0 -1 0 -0 0
0 -0 -1 -1 -1 -1 -2 -2 -3 -4 -4 -4 -4 -3 -3 -3 -2 -2 -2 -2 -2 -2 -2 -2 -1 -1 -1 -1 -0 0 0 -0 -0 -0 -0 -0 -0 -0 -0 -0 -0 -0 -0
-1 -1 -1 -1 -1 -1 -2 -2 -4 -4 -3 -3 -4 -3 -3 -3 -3 -2 -2 -2 -2 -2 -2 -2 -2 -1 -1 -1 -0 0 0 -0 -1 -0 -0 -0 -0 -0 -0 -0 0 0 0
-1 -1 -1 -1 -1 -1 -3 -4 -4 -4 -3 -3 -3 -3 -3 -3 -3 -3 -3 -3 -3 -3 -3 -3 -3 -1 -1 -0 0 0 0 -0 -0 -0 0 0 0 0 -0 -0 -0 0 0
-1 -1 -2 -1 -2 -2 -4 -4 -4 -4 -4 -4 -3 -3 -3 -3 -3 -3 -3 -3 -3 -3 -4 -3 -2 -1 -1 -0 -0 -1 -1 -1 -1 -0 -0 -0 -0 -0 -0 -0 -1 -0 0
-1 -2 -2 -2 -3 -4 -5 -4 -4 -4 -3 -3 -3 -3 -4 -3 -3 -3 -4 -4 -4 -4 -4 -3 -3 -2 -1 -1 -1 -1 -1 -0 -0 0 -0 -0 -0 -0 -1 -1 -1 0 0
-2 -2 -2 -3 -5 -5 -4 -4 -4 -4 -4 -3 -3 -4 -4 -4 -3 -3 -4 -5 -5 -5 -5 -5 -4 -3 -2 -2 -2 -1 -1 -1 -1 -0 -0 -0 -0 -0 0 0 0 0 1
-3 -3 -3 -4 -5 -4 -4 -4 -5 -3 -4 -4 -4 -4 -4 -4 -4 -4 -4 -5 -5 -5 -5 -5 -5 -4 -3 -3 -3 -2 -1 -1 -1 -0 0 -0 -0 0 0 -0 -0 -0 0
-3 -4 -4 -5 -5 -4 -4 -4 -5 -4 -4 -4 -4 -4 -4 -4 -4 -4 -4 -5 -5 -5 -6 -5 -5 -5 -4 -3 -4 -2 -2 -1 -1 0 -0 -0 -0 0 0 -0 0 2 2
-4 -4 -4 -5 -5 -5 -5 -5 -5 -5 -5 -4 -4 -4 -4 -4 -4 -4 -5 -5 -5 -5 -6 -6 -6 -5 -5 -4 -3 -3 -2 -1 -0 -0 -0 0 0 0 0 1 1 2 1
-4 -5 -5 -5 -5 -5 -5 -5 -5 -5 -5 -5 -5 -5 -4 -5 -5 -5 -5 -6 -6 -6 -6 -6 -6 -6 -6 -5 -3 -3 -2 -1 -0 0 0 0 1 1 1 1 1 1 1
-5 -5 -5 -6 -5 -5 -5 -5 -5 -5 -5 -5 -5 -5 -5 -5 -5 -6 -6 -6 -6 -6 -6 -6 -6 -6 -5 -5 -4 -2 -2 -1 -1 -0 0 0 1 1 1 1 1 1 2
-5 -5 -5 -6 -5 -5 -5 -5 -6 -6 -5 -5 -5 -5 -6 -6 -6 -6 -6 -6 -6 -6 -6 -7 -7 -6 -5 -5 -5 -3 -2 -3 -1 -0 -0 0 1 1 1 1 1 1 1
-5 -5 -5 -6 -5 -5 -5 -5 -6 -6 -6 -6 -6 -6 -6 -6 -6 -6 -6 -6 -6 -6 -6 -6 -6 -6 -5 -4 -4 -3 -2 -2 -2 -2 -1 -1 -0 0 1 1 1 1 1
-5 -6 -6 -6 -5 -6 -6 -6 -6 -6 -6 -6 -6 -6 -6 -6 -6 -6 -6 -6 -6 -6 -6 -6 -6 -5 -5 -4 -3 -2 -2 -2 -2 -2 -1 -1 -1 -0 1 1 1 1 1
-5 -6 -6 -6 -6 -6 -6 -6 -6 -6 -6 -6 -6 -6 -6 -6 -6 -6 -6 -6 -6 -5 -5 -5 -5 -4 -4 -3 -3 -2 -1 -1 -1 -2 -1 -1 -1 -1 -0 1 1 1 1
-6 -6 -6 -6 -6 -6 -6 -6 -6 -6 -6 -6 -6 -6 -6 -6 -6 -6 -6 -6 -5 -5 -4 -3 -3 -3 -2 -2 -1 -1 -1 -1 -1 -1 -1 -2 -2 -2 -0 0 0 1 1

GFSGL_850_temp_072.txt.gz
Temp
8 8 7 6 6 6 5 5 4 4 4 4 3 3 2 2 2 1 1 1 1 1 1 1 1 0 -0 -0 -0 -0 -1 -1 -1 -1 -1 -0 0 0 1 2 2 2 2
7 7 6 5 5 5 4 4 4 3 3 3 2 2 2 1 1 1 1 0 0 0 0 -0 -0 -0 -1 -0 -1 -1 -1 -1 -1 -1 -1 -1 -1 0 0 0 1 1 1
7 6 5 5 4 4 4 3 3 2 2 2 1 1 1 0 0 -0 -0 -0 -0 -1 -1 -1 -1 -1 -1 -1 -1 -1 -1 -1 -1 -2 -2 -1 -1 -1 0 1 0 -0 1
6 5 4 4 4 3 3 2 2 2 1 1 0 0 -0 -0 -0 -0 -1 -1 -1 -1 -1 -1 -1 -1 -1 -1 -1 -1 -1 -1 -1 -1 -1 -1 -1 -1 -1 -1 -0 -0 -0
5 4 4 4 3 3 2 2 1 1 0 -0 -0 -0 -0 -0 -1 -1 -2 -2 -2 -2 -2 -1 -1 -1 -1 -0 0 0 -1 -1 -1 -1 -1 -1 -1 -1 -1 1 0 0 -0
4 4 3 3 2 2 1 1 0 -0 -0 -1 -1 -1 -1 -1 -2 -2 -2 -2 -1 -2 -1 -1 -1 -1 -1 -1 -0 0 0 1 0 -1 -1 -1 -1 -1 -0 0 0 -0 -1
3 3 2 2 2 1 1 -0 -1 -1 -1 -1 -2 -2 -2 -3 -3 -2 -2 -2 -1 -1 -1 -1 -1 -1 -1 -1 -1 -1 -0 -0 0 0 0 -0 -0 -0 -0 -0 -1 -0 0
2 2 2 2 1 0 -0 -1 -1 -2 -2 -2 -2 -4 -4 -3 -3 -3 -2 -2 -2 -2 -1 -1 -2 -1 -1 -2 -2 -1 -0 -0 1 1 0 0 0 0 -0 -1 -1 -1 -0
2 2 2 1 0 -0 -1 -1 -1 -2 -2 -2 -3 -3 -3 -3 -3 -3 -2 -2 -2 -2 -2 -1 -2 -2 -2 -2 -1 -1 -0 0 0 1 1 1 0 -0 -0 -1 -1 -1 -1
2 2 1 0 -1 -1 -1 -1 -2 -2 -2 -4 -3 -3 -3 -3 -3 -3 -2 -2 -2 -2 -2 -1 -2 -3 -2 -2 -1 -1 -0 0 0 0 1 1 1 1 1 -0 -0 -1 -1
1 1 0 -0 -1 -1 -1 -1 -2 -2 -3 -3 -3 -3 -3 -3 -3 -2 -2 -3 -2 -2 -3 -2 -2 -3 -3 -2 -1 -1 -0 -0 -0 -0 -0 -0 -0 -0 -0 -0 -0 -1 -1
1 0 -0 -1 -1 -1 -1 -2 -2 -3 -4 -4 -4 -3 -3 -3 -3 -3 -3 -3 -2 -3 -3 -3 -3 -3 -3 -2 -1 -1 -0 0 -0 -0 -0 0 0 -0 -0 -0 -0 -0 -1
0 -0 -1 -1 -2 -2 -2 -2 -4 -4 -4 -4 -4 -3 -3 -3 -3 -3 -3 -3 -3 -3 -4 -4 -4 -3 -2 -1 -0 -1 -0 -0 -0 -0 -0 -0 -0 -0 -0 -0 -1 -1 -0
-0 -1 -1 -2 -2 -2 -3 -4 -4 -4 -4 -4 -3 -3 -3 -3 -3 -3 -3 -3 -3 -4 -4 -4 -4 -3 -2 -1 -1 -1 -1 -1 -0 -0 -0 -0 -0 -0 -0 -0 -0 -0 -1
-1 -1 -2 -2 -3 -3 -3 -4 -4 -4 -4 -4 -4 -4 -4 -3 -3 -3 -3 -3 -4 -4 -4 -4 -4 -4 -3 -2 -2 -1 -1 -2 -1 -1 -0 -0 -0 -0 -0 -1 -1 -1 -1
-1 -2 -3 -3 -3 -4 -4 -4 -4 -4 -4 -4 -4 -4 -3 -4 -3 -3 -4 -3 -4 -5 -4 -5 -5 -5 -4 -3 -2 -2 -2 -2 -1 -1 -0 -0 -0 -0 -1 -1 -1 -1 -1
-2 -3 -3 -3 -4 -5 -4 -4 -4 -4 -4 -4 -4 -4 -4 -4 -4 -4 -4 -5 -5 -5 -5 -5 -6 -6 -5 -4 -4 -3 -3 -2 -1 -1 -0 0 -0 -0 -0 0 0 0 -0
-2 -3 -3 -4 -4 -5 -5 -5 -5 -5 -5 -5 -4 -4 -5 -4 -4 -5 -5 -5 -5 -5 -6 -6 -6 -6 -5 -5 -4 -4 -3 -2 -2 -1 -0 -0 -0 -0 -0 -0 -0 -0 -0
-3 -4 -4 -5 -5 -5 -5 -5 -5 -5 -5 -5 -5 -5 -5 -4 -4 -5 -5 -6 -6 -6 -6 -6 -6 -6 -6 -5 -4 -3 -3 -2 -1 -0 0 -0 0 -0 -0 0 1 1 1
-3 -4 -4 -5 -5 -5 -5 -5 -5 -5 -6 -5 -5 -5 -5 -5 -5 -5 -6 -6 -6 -6 -6 -6 -7 -7 -6 -6 -5 -3 -2 -2 -1 -0 -0 0 1 1 1 1 1 0 1
-3 -4 -5 -5 -5 -5 -5 -5 -5 -5 -6 -6 -6 -5 -6 -5 -6 -6 -6 -6 -6 -6 -6 -6 -7 -7 -7 -6 -6 -4 -2 -2 -1 -0 0 0 1 1 1 1 2 2 2
-4 -5 -5 -5 -5 -5 -5 -6 -6 -6 -6 -6 -6 -6 -6 -6 -6 -6 -6 -6 -6 -6 -6 -6 -6 -7 -7 -6 -5 -4 -2 -1 -1 -1 -0 0 1 1 1 1 1 2 2
-4 -5 -6 -6 -5 -5 -6 -6 -6 -6 -6 -6 -6 -6 -6 -6 -6 -6 -6 -6 -6 -6 -6 -6 -6 -6 -6 -6 -4 -3 -2 -1 -1 -1 -1 1 0 1 1 1 1 1 2
-4 -6 -6 -6 -6 -6 -6 -6 -6 -6 -6 -6 -6 -6 -6 -6 -6 -6 -6 -6 -6 -6 -6 -6 -6 -5 -5 -4 -3 -3 -2 -1 -1 -1 0 0 -0 1 1 1 1 1 1
-5 -6 -6 -6 -6 -6 -6 -6 -6 -6 -6 -6 -6 -6 -6 -6 -6 -6 -6 -6 -6 -5 -5 -5 -5 -4 -4 -3 -2 -2 -1 -1 -1 -2 -1 -1 -1 -0 1 1 1 1 1
-5 -6 -6 -7 -6 -6 -6 -6 -7 -7 -7 -7 -6 -6 -6 -6 -6 -6 -6 -6 -6 -5 -4 -4 -3 -3 -2 -2 -2 -1 -1 -1 -1 -1 -1 -1 -1 -1 0 0 1 1 1

GFSGL_850_temp_075.txt.gz
Temp
9 9 8 7 7 6 6 5 5 4 4 4 4 3 3 2 2 1 1 1 1 0 0 0 0 -0 0 0 -0 -0 -1 -1 -1 -0 -1 -0 0 1 1 1 1 0 2
8 7 7 6 6 5 5 4 4 4 3 3 3 2 2 1 1 0 0 -0 -0 -0 -0 -1 -1 -1 -0 -0 -0 -1 -1 -0 -1 -0 -0 0 0 1 1 1 1 1 1
7 6 6 5 5 4 4 3 3 3 3 2 1 1 0 -0 -0 -0 -0 -1 -1 -1 -1 -1 -1 -1 -1 -1 -1 -1 -1 -1 -1 -1 -1 -1 -0 0 -0 -0 0 1 1
6 6 5 4 4 3 3 3 3 2 2 1 0 -0 -1 -1 -1 -1 -1 -1 -1 -1 -1 -1 -2 -2 -2 -1 -1 -1 -1 -2 -2 -2 -2 -1 -2 0 -0 -1 -0 1 2
5 4 4 4 3 3 3 2 2 1 0 -0 -1 -1 -1 -2 -2 -2 -2 -2 -2 -2 -2 -2 -2 -2 -2 -1 -0 -0 -0 -0 -0 -1 -1 -1 -1 -1 -1 1 -0 0 1
4 4 3 3 3 2 2 1 1 0 -0 -1 -1 -2 -2 -2 -2 -3 -2 -2 -2 -2 -1 -2 -1 -1 -1 -1 -1 -0 -1 -0 -0 -0 -0 -0 -1 -0 1 -0 -1 -1 -0
4 3 2 2 2 2 1 1 0 -1 -1 -1 -2 -2 -2 -3 -3 -3 -2 -2 -2 -2 -2 -2 -2 -2 -1 -1 -1 -1 -1 -0 -1 -1 -1 -0 -1 -0 -0 -0 -0 -0 -0
3 2 2 2 2 1 1 -0 -1 -1 -1 -2 -2 -2 -3 -3 -3 -3 -2 -2 -2 -2 -2 -2 -2 -2 -2 -2 -2 -2 -2 -1 -1 -1 -0 0 0 0 -0 0 0 -0 -0
2 2 2 2 1 1 -0 -1 -1 -1 -2 -2 -2 -3 -3 -3 -3 -3 -3 -2 -2 -2 -2 -2 -2 -3 -2 -2 -2 -1 -1 -1 -1 -0 -0 -0 0 1 1 -0 -0 -1 -1
2 2 1 1 1 -0 -1 -1 -2 -2 -2 -2 -3 -3 -3 -3 -3 -3 -3 -2 -2 -2 -2 -2 -2 -3 -3 -2 -2 -2 -2 -1 -1 -0 -0 -0 0 1 0 -0 -0 -1 -1
2 1 1 0 -0 -1 -1 -2 -2 -2 -3 -3 -3 -3 -3 -3 -3 -3 -3 -2 -3 -2 -3 -3 -3 -3 -3 -3 -2 -2 -2 -1 -0 -1 -0 -0 -0 -0 -0 0 -0 -0 -1
1 1 1 -0 -1 -2 -2 -2 -2 -3 -3 -3 -4 -4 -4 -3 -3 -3 -3 -3 -3 -3 -3 -3 -3 -4 -3 -3 -3 -2 -1 -1 -0 -0 -0 -0 -0 0 0 -0 -0 -0 -0
1 1 0 -1 -1 -2 -2 -3 -3 -3 -4 -4 -4 -4 -4 -3 -3 -2 -3 -3 -3 -3 -3 -4 -4 -4 -4 -3 -1 -1 -1 -1 -1 -1 -0 0 0 -0 -0 -0 -0 -1 -1
0 0 -1 -1 -2 -3 -3 -3 -4 -4 -4 -4 -4 -4 -4 -4 -3 -3 -3 -3 -3 -3 -4 -4 -4 -4 -4 -3 -2 -1 -1 -1 -1 -1 -1 -0 -0 -1 -1 -1 -1 -1 -1
-0 -1 -1 -2 -3 -3 -4 -4 -4 -4 -4 -4 -4 -4 -4 -4 -3 -3 -3 -3 -3 -4 -4 -4 -5 -6 -5 -4 -3 -2 -2 -1 -1 -2 -1 -1 -1 -1 -1 -1 -1 -1 -1
-1 -1 -2 -3 -3 -4 -4 -4 -4 -5 -5 -5 -5 -5 -4 -4 -4 -4 -4 -4 -5 -5 -5 -5 -5 -6 -6 -5 -4 -3 -2 -2 -1 -2 -1 -1 -1 -0 -1 -1 -1 -0 -1
-1 -2 -3 -3 -4 -4 -4 -5 -5 -4 -5 -5 -5 -5 -5 -5 -5 -4 -5 -5 -5 -5 -5 -5 -6 -6 -6 -6 -5 -4 -4 -2 -2 -2 -1 -1 -0 -0 -1 -0 -1 -1 -1
-1 -2 -3 -4 -4 -5 -5 -5 -5 -5 -5 -5 -5 -5 -5 -5 -5 -5 -5 -5 -5 -5 -6 -6 -6 -6 -6 -6 -6 -4 -4 -3 -2 -2 -1 -0 -0 -0 -0 -1 -0 -0 -0
-2 -3 -4 -5 -5 -5 -5 -5 -5 -5 -5 -5 -5 -5 -5 -5 -5 -6 -6 -6 -6 -6 -6 -6 -6 -6 -7 -6 -6 -5 -4 -3 -2 -2 -0 -0 -0 -0 -0 0 -0 -0 -0
-3 -3 -4 -5 -5 -5 -5 -5 -6 -6 -6 -6 -6 -6 -5 -5 -5 -6 -6 -6 -6 -6 -6 -6 -6 -7 -7 -7 -6 -6 -4 -3 -2 -1 -0 0 0 0 0 0 0 0 -0
-3 -4 -5 -5 -5 -5 -5 -6 -6 -6 -6 -6 -6 -6 -6 -6 -6 -6 -6 -6 -6 -6 -6 -6 -6 -7 -7 -7 -6 -5 -4 -2 -1 -1 -0 1 1 1 0 1 1 1 1
-4 -4 -5 -6 -6 -5 -6 -6 -6 -6 -6 -6 -6 -6 -6 -6 -6 -6 -6 -6 -6 -6 -6 -6 -6 -6 -7 -7 -6 -4 -3 -2 -1 -1 -0 1 1 1 1 1 2 2 1
-4 -5 -6 -6 -6 -6 -6 -6 -6 -6 -7 -6 -6 -6 -6 -6 -6 -6 -6 -6 -6 -6 -6 -6 -6 -6 -6 -6 -5 -3 -2 -1 -1 -0 -0 1 1 1 1 1 2 2 2
-5 -5 -6 -6 -6 -6 -6 -6 -6 -7 -7 -7 -7 -6 -6 -6 -6 -6 -6 -6 -6 -6 -6 -6 -5 -5 -5 -4 -4 -2 -1 -1 -1 -1 -0 0 1 1 1 1 1 2 2
-5 -5 -6 -7 -7 -6 -6 -6 -6 -7 -7 -7 -7 -7 -6 -7 -7 -7 -6 -6 -6 -6 -5 -5 -4 -4 -4 -3 -2 -1 -1 -0 -1 -1 -0 -0 -0 1 1 1 1 2 2
-5 -5 -6 -7 -6 -6 -7 -7 -7 -7 -7 -7 -7 -7 -7 -7 -7 -7 -6 -6 -6 -5 -5 -4 -4 -3 -2 -2 -2 -1 -0 -1 -1 -2 -1 -1 -1 0 1 1 1 2 2